DW7501 Weather Reports


Display with metric or nautical units.
time (UTC)temp
F
wind
direction
speed
MPH
gust
MPH
rain 1hr
in
rain 24hr
in
rain mn
in
humidity
%
barometer
mb
20211017012217 51 270 12.0 25.0 0.04 0.13 0.13 67 1010.2
20211017012117 51 270 13.0 25.0 0.04 0.13 0.13 67 1010.1
20211017012018 51 270 12.0 25.0 0.04 0.13 0.13 67 1010.2
20211017011917 51 269 12.0 25.0 0.04 0.13 0.13 67 1010.2
20211017011817 51 269 12.0 25.0 0.04 0.13 0.13 68 1010.2
20211017011717 51 269 12.0 25.0 0.04 0.13 0.13 69 1010.2
20211017011617 51 270 12.0 25.0 0.04 0.13 0.13 69 1010.2
20211017011517 51 270 12.0 25.0 0.04 0.13 0.13 69 1010.2
20211017011417 51 269 12.0 23.0 0.04 0.13 0.13 70 1010.3
20211017011318 51 269 12.0 20.0 0.04 0.13 0.13 70 1010.1
20211017011217 51 269 12.0 20.0 0.04 0.13 0.13 71 1010.2
20211017011117 51 269 12.0 20.0 0.04 0.13 0.13 71 1010.2
20211017011018 51 269 12.0 20.0 0.04 0.13 0.13 70 1010.2
20211017010917 51 270 12.0 20.0 0.04 0.13 0.13 70 1010.2
20211017010817 51 270 12.0 20.0 0.04 0.13 0.13 70 1010.1
20211017010716 50 270 13.0 20.0 0.04 0.13 0.13 71 1010.2
20211017010617 50 270 12.0 20.0 0.04 0.13 0.13 71 1010.2
20211017010517 50 270 12.0 20.0 0.05 0.13 0.13 71 1010.2
20211017010417 50 270 12.0 20.0 0.05 0.13 0.13 72 1010.1
20211017010317 50 269 12.0 21.0 0.07 0.13 0.13 73 1010.2
20211017010217 50 267 12.0 21.0 0.07 0.13 0.13 73 1010.2
20211017010116 50 268 13.0 21.0 0.07 0.13 0.13 73 1010.1
20211017010019 50 267 12.0 21.0 0.07 0.13 0.13 73 1010.1
20211017005916 50 266 12.0 21.0 0.07 0.13 0.13 73 1010.1
20211017005817 50 264 12.0 21.0 0.07 0.13 0.13 74 1010.1
20211017005717 50 264 12.0 21.0 0.07 0.13 0.13 74 1010.1
20211017005617 50 263 12.0 21.0 0.07 0.13 0.13 74 1010.1
20211017005517 50 263 12.0 21.0 0.07 0.13 0.13 74 1010.1
20211017005417 50 264 12.0 21.0 0.07 0.13 0.13 74 1010.0
20211017005317 49 264 11.0 21.0 0.07 0.13 0.13 74 1010.0
20211017005217 49 265 11.0 19.0 0.07 0.13 0.13 74 1010.1
20211017005117 49 265 11.0 19.0 0.07 0.13 0.13 74 1010.1
20211017005018 49 267 11.0 19.0 0.07 0.13 0.13 74 1010.1
20211017004917 49 266 11.0 19.0 0.07 0.13 0.13 74 1010.1
20211017004817 49 267 10.0 19.0 0.07 0.13 0.13 73 1010.1
20211017004717 49 267 10.0 19.0 0.07 0.13 0.13 73 1010.0
20211017004617 49 268 10.0 19.0 0.07 0.13 0.13 73 1010.1
20211017004517 49 268 10.0 19.0 0.07 0.13 0.13 73 1010.0
20211017004416 48 267 10.0 18.0 0.07 0.13 0.13 73 1010.0
20211017004317 48 267 9.0 18.0 0.07 0.13 0.13 73 1010.0
20211017004217 48 267 9.0 16.0 0.07 0.13 0.13 72 1010.0
20211017004117 48 267 9.0 16.0 0.07 0.13 0.13 72 1010.0
20211017004018 48 266 8.0 19.0 0.07 0.13 0.13 72 1009.9
20211017003917 48 269 8.0 19.0 0.07 0.13 0.13 72 1009.9
20211017003817 48 269 9.0 21.0 0.07 0.13 0.13 72 1009.9
20211017003716 48 269 9.0 21.0 0.07 0.13 0.13 72 1009.9
20211017003617 48 269 10.0 21.0 0.07 0.13 0.13 72 1009.9
20211017003517 48 270 10.0 21.0 0.07 0.13 0.13 72 1010.0
20211017003417 48 270 11.0 21.0 0.07 0.13 0.13 72 1009.9
20211017003317 48 269 12.0 24.0 0.07 0.13 0.13 71 1010.0
20211017003217 48 270 13.0 24.0 0.07 0.13 0.13 71 1009.9
20211017003117 48 270 14.0 24.0 0.06 0.12 0.12 71 1009.9
20211017003019 48 270 14.0 24.0 0.06 0.12 0.12 71 1010.0
20211017002917 48 268 15.0 24.0 0.06 0.12 0.12 71 1010.0
20211017002817 48 268 14.0 24.0 0.05 0.11 0.11 70 1010.0
20211017002716 48 268 15.0 24.0 0.05 0.11 0.11 70 1010.0
20211017002617 48 266 14.0 24.0 0.05 0.11 0.11 70 1010.0
20211017002517 48 264 14.0 24.0 0.04 0.10 0.10 70 1010.0
20211017002416 48 263 13.0 24.0 0.04 0.10 0.10 70 1010.1
20211017002317 48 262 12.0 22.0 0.04 0.10 0.10 71 1010.1
20211017002218 48 260 11.0 22.0 0.03 0.09 0.09 71 1010.0
20211017002116 48 259 10.0 22.0 0.03 0.09 0.09 71 1010.1
20211017002018 48 258 9.0 22.0 0.03 0.09 0.09 72 1010.1
20211017001917 48 257 8.0 17.0 0.03 0.09 0.09 72 1010.0
20211017001817 48 255 7.0 17.0 0.03 0.09 0.09 72 1010.0
20211017001716 48 255 6.0 16.0 0.03 0.09 0.09 73 1010.1
20211017001617 48 258 5.0 11.0 0.03 0.09 0.09 73 1010.0
20211017001517 48 260 5.0 11.0 0.03 0.09 0.09 73 1009.9
20211017001416 48 262 5.0 12.0 0.03 0.09 0.09 74 1009.9
20211017001317 48 265 5.0 12.0 0.03 0.09 0.09 74 1009.9
20211017001217 48 266 5.0 12.0 0.03 0.09 0.09 74 1009.8
20211017001116 49 270 4.0 12.0 0.03 0.09 0.09 74 1009.8
20211017001017 49 271 4.0 12.0 0.03 0.09 0.09 74 1009.8
20211017000917 49 275 4.0 12.0 0.03 0.09 0.09 74 1009.8
20211017000817 49 278 4.0 12.0 0.03 0.09 0.09 74 1009.8
20211017000717 49 278 4.0 12.0 0.03 0.09 0.09 74 1009.7
20211017000617 49 281 4.0 12.0 0.03 0.09 0.09 74 1009.8
20211017000517 49 287 3.0 12.0 0.03 0.08 0.08 74 1009.9
20211017000416 49 314 3.0 12.0 0.02 0.07 0.07 74 1009.8
20211017000317 50 338 3.0 12.0 0.01 0.06 0.06 74 1009.8
20211017000218 50 358 2.0 9.0 0.01 0.06 0.06 74 1009.8
20211017000116 50 2 2.0 9.0 0.01 0.06 0.06 74 1009.7
20211017000019 50 355 2.0 9.0 0.01 0.06 0.06 74 1009.6
20211016235916 50 337 3.0 9.0 0.01 0.06 0.06 74 1009.6
20211016235817 50 336 3.0 8.0 0.01 0.06 0.06 74 1009.6
20211016235717 50 337 3.0 8.0 0.01 0.06 0.06 74 1009.6
20211016235617 50 342 3.0 12.0 0.01 0.06 0.06 74 1009.6
20211016235517 50 342 3.0 12.0 0.01 0.06 0.06 75 1009.5
20211016235417 50 336 3.0 12.0 0.01 0.06 0.06 75 1009.5
20211016235316 50 340 3.0 12.0 0.01 0.06 0.06 75 1009.5
20211016235217 50 337 3.0 12.0 0.01 0.06 0.06 75 1009.5
20211016235117 50 326 3.0 12.0 0.01 0.06 0.06 75 1009.5
20211016235018 50 313 3.0 18.0 0.01 0.06 0.06 75 1009.5
20211016234917 50 321 3.0 18.0 0.01 0.06 0.06 75 1009.5
20211016234817 50 311 3.0 18.0 0.01 0.06 0.06 76 1009.4
20211016234717 51 308 3.0 18.0 0.01 0.06 0.06 75 1009.4
20211016234617 51 293 4.0 18.0 0.01 0.06 0.06 75 1009.4
20211016234518 51 284 4.0 18.0 0.01 0.06 0.06 75 1009.3
20211016234417 51 283 5.0 18.0 0.01 0.06 0.06 75 1009.3
20211016234317 51 279 5.0 18.0 0.01 0.06 0.06 75 1009.4
20211016234216 51 278 5.0 18.0 0.01 0.06 0.06 75 1009.3
20211016234117 51 274 5.0 18.0 0.01 0.06 0.06 75 1009.3
20211016234017 51 275 5.0 17.0 0.01 0.06 0.06 75 1009.3
20211016233916 51 273 5.0 17.0 0.01 0.06 0.06 75 1009.3
20211016233817 51 276 4.0 17.0 0.01 0.06 0.06 75 1009.3
20211016233717 51 276 4.0 17.0 0.01 0.06 0.06 75 1009.3
20211016233616 51 277 4.0 17.0 0.01 0.06 0.06 75 1009.2
20211016233517 51 279 4.0 17.0 0.01 0.06 0.06 75 1009.2
20211016233417 51 276 3.0 14.0 0.01 0.06 0.06 75 1009.2
20211016233316 51 276 4.0 21.0 0.01 0.06 0.06 75 1009.2
20211016233216 51 275 5.0 21.0 0.01 0.06 0.06 75 1009.2
20211016233117 52 275 5.0 21.0 0.01 0.06 0.06 75 1009.2
20211016233020 52 271 6.0 21.0 0.01 0.06 0.06 75 1009.1
20211016232917 52 271 6.0 21.0 0.01 0.06 0.06 75 1009.2
20211016232817 52 270 7.0 21.0 0.01 0.06 0.06 75 1009.1
20211016232716 52 269 8.0 21.0 0.01 0.06 0.06 74 1009.2
20211016232617 52 269 9.0 21.0 0.01 0.06 0.06 74 1009.1
20211016232517 52 269 10.0 21.0 0.01 0.06 0.06 73 1009.1
20211016232417 52 268 10.0 21.0 0.01 0.06 0.06 73 1009.0
20211016232317 52 268 10.0 21.0 0.01 0.06 0.06 72 1009.1
20211016232217 52 267 11.0 22.0 0.01 0.06 0.06 72 1009.0
20211016232117 52 268 12.0 24.0 0.01 0.06 0.06 72 1009.0
20211016232017 51 268 12.0 24.0 0.01 0.06 0.06 72 1009.0
20211016231918 51 268 13.0 24.0 0.01 0.06 0.06 72 1009.0
20211016231817 51 268 13.0 24.0 0.01 0.06 0.06 73 1008.9
20211016231716 51 268 14.0 24.0 0.01 0.06 0.06 73 1008.8
20211016231617 51 267 14.0 24.0 0.01 0.06 0.06 73 1008.9
20211016231517 51 268 14.0 24.0 0.01 0.06 0.06 73 1008.8
20211016231417 51 268 14.0 24.0 0.01 0.06 0.06 73 1008.8
20211016231317 51 268 14.0 24.0 0.01 0.06 0.06 73 1008.9
20211016231217 51 268 14.0 24.0 0.01 0.06 0.06 73 1008.9
20211016231117 52 269 13.0 22.0 0.01 0.06 0.06 73 1008.8
20211016231017 52 268 13.0 22.0 0.01 0.06 0.06 72 1008.8
20211016230916 52 268 12.0 22.0 0.01 0.06 0.06 72 1008.8
20211016230817 52 270 11.0 22.0 0.01 0.06 0.06 71 1008.9
20211016230717 52 270 11.0 22.0 0.01 0.06 0.06 71 1008.8
20211016230616 52 270 10.0 22.0 0.00 0.05 0.05 70 1008.8
20211016230517 52 271 10.0 17.0 0.00 0.05 0.05 68 1008.8
20211016230417 52 270 9.0 17.0 0.00 0.05 0.05 68 1008.8
20211016230316 52 270 9.0 16.0 0.00 0.05 0.05 69 1008.7
20211016230217 52 269 9.0 17.0 0.00 0.05 0.05 68 1008.7
20211016230117 52 267 9.0 27.0 0.00 0.05 0.05 68 1008.7
20211016230019 52 268 10.0 27.0 0.00 0.05 0.05 68 1008.7
20211016225917 52 269 10.0 27.0 0.00 0.05 0.05 68 1008.7
20211016225816 52 267 11.0 27.0 0.00 0.05 0.05 68 1008.6
20211016225717 52 267 11.0 27.0 0.00 0.05 0.05 68 1008.7
20211016225617 52 268 12.0 27.0 0.00 0.05 0.05 68 1008.7
20211016225517 52 268 12.0 27.0 0.00 0.05 0.05 68 1008.6
20211016225417 53 268 13.0 27.0 0.00 0.05 0.05 67 1008.6
20211016225317 53 268 13.0 27.0 0.00 0.05 0.05 67 1008.6
20211016225216 53 269 13.0 27.0 0.00 0.05 0.05 67 1008.5
20211016225117 53 270 13.0 23.0 0.00 0.05 0.05 68 1008.6
20211016225017 53 270 13.0 20.0 0.00 0.05 0.05 68 1008.6
20211016224917 53 270 13.0 20.0 0.00 0.05 0.05 68 1008.5
20211016224816 53 270 13.0 21.0 0.00 0.05 0.05 68 1008.5
20211016224717 53 270 13.0 21.0 0.00 0.05 0.05 69 1008.5
20211016224617 53 269 13.0 23.0 0.00 0.05 0.05 69 1008.5
20211016224516 53 270 13.0 23.0 0.00 0.05 0.05 69 1008.5
20211016224417 53 269 13.0 23.0 0.00 0.05 0.05 69 1008.5
20211016224316 53 270 13.0 23.0 0.00 0.05 0.05 69 1008.4
20211016224216 53 269 14.0 23.0 0.00 0.05 0.05 69 1008.4
20211016224117 53 269 14.0 23.0 0.00 0.05 0.05 69 1008.4
20211016224017 53 268 14.0 23.0 0.00 0.05 0.05 69 1008.4
20211016223916 53 267 13.0 23.0 0.00 0.05 0.05 69 1008.4
20211016223817 53 267 13.0 23.0 0.00 0.05 0.05 69 1008.5
20211016223717 53 266 13.0 23.0 0.00 0.05 0.05 69 1008.4
20211016223616 53 266 13.0 20.0 0.00 0.05 0.05 69 1008.4
20211016223517 52 266 13.0 20.0 0.00 0.05 0.05 69 1008.5
20211016223417 52 265 12.0 20.0 0.00 0.05 0.05 68 1008.4
20211016223316 52 265 12.0 19.0 0.00 0.05 0.05 68 1008.4
20211016223217 52 265 11.0 19.0 0.00 0.05 0.05 68 1008.4
20211016223117 52 266 11.0 19.0 0.00 0.05 0.05 69 1008.4
20211016223019 52 267 11.0 18.0 0.00 0.05 0.05 69 1008.4
20211016222917 52 267 11.0 18.0 0.00 0.05 0.05 69 1008.4
20211016222816 52 268 11.0 18.0 0.00 0.05 0.05 69 1008.4
20211016222717 52 269 11.0 18.0 0.00 0.05 0.05 69 1008.4
20211016222617 52 268 11.0 19.0 0.00 0.05 0.05 70 1008.4
20211016222516 52 268 12.0 19.0 0.00 0.05 0.05 70 1008.4
20211016222417 52 269 12.0 19.0 0.00 0.05 0.05 70 1008.4
20211016222317 52 269 12.0 19.0 0.00 0.05 0.05 70 1008.4
20211016222216 52 269 12.0 19.0 0.00 0.05 0.05 70 1008.4
20211016222117 52 269 12.0 19.0 0.00 0.05 0.05 70 1008.4
20211016222018 52 269 11.0 19.0 0.00 0.05 0.05 71 1008.4
20211016221917 52 269 11.0 19.0 0.00 0.05 0.05 71 1008.4
20211016221817 52 269 10.0 19.0 0.00 0.05 0.05 71 1008.4
20211016221716 52 267 9.0 19.0 0.00 0.05 0.05 72 1008.3
20211016221617 52 268 8.0 19.0 0.00 0.05 0.05 73 1008.3
20211016221517 52 270 7.0 16.0 0.00 0.05 0.05 73 1008.4
20211016221417 51 268 7.0 17.0 0.00 0.05 0.05 73 1008.3
20211016221317 51 267 7.0 17.0 0.00 0.05 0.05 73 1008.3
20211016221216 51 268 7.0 17.0 0.00 0.05 0.05 73 1008.3
20211016221116 52 268 8.0 19.0 0.00 0.05 0.05 73 1008.3
20211016221017 52 267 8.0 19.0 0.00 0.05 0.05 73 1008.3
20211016220917 52 267 9.0 19.0 0.00 0.05 0.05 72 1008.3
20211016220816 52 267 10.0 19.0 0.00 0.05 0.05 72 1008.3
20211016220717 52 268 12.0 25.0 0.00 0.05 0.05 71 1008.3
20211016220617 52 268 13.0 25.0 0.00 0.05 0.05 71 1008.3
20211016220517 52 267 14.0 25.0 0.00 0.05 0.05 70 1008.3
20211016220417 52 269 14.0 25.0 0.00 0.05 0.05 70 1008.3
20211016220316 52 268 13.0 25.0 0.00 0.06 0.05 70 1008.2
20211016220217 52 267 13.0 25.0 0.00 0.06 0.05 70 1008.2
20211016220117 52 266 13.0 25.0 0.00 0.06 0.05 70 1008.2
20211016220019 52 267 12.0 25.0 0.00 0.06 0.05 70 1008.2
20211016215917 52 267 11.0 25.0 0.00 0.06 0.05 70 1008.2
20211016215816 51 267 9.0 25.0 0.00 0.06 0.05 72 1008.2
20211016215717 51 267 8.0 20.0 0.00 0.06 0.05 73 1008.2
20211016215617 51 266 6.0 18.0 0.00 0.06 0.05 74 1008.2
20211016215517 51 266 5.0 16.0 0.00 0.06 0.05 75 1008.2
20211016215417 51 264 4.0 13.0 0.00 0.06 0.05 75 1008.3
20211016215317 51 266 4.0 13.0 0.00 0.06 0.05 75 1008.2
20211016215216 51 271 3.0 13.0 0.00 0.06 0.05 75 1008.3
20211016215116 51 274 3.0 10.0 0.01 0.06 0.05 75 1008.3
20211016215017 51 272 3.0 13.0 0.01 0.06 0.05 75 1008.3
20211016214918 51 270 4.0 13.0 0.01 0.06 0.05 75 1008.3
20211016214816 51 270 5.0 13.0 0.01 0.06 0.05 75 1008.3
20211016214717 51 268 6.0 14.0 0.01 0.06 0.05 75 1008.3
20211016214617 51 266 6.0 17.0 0.01 0.06 0.05 74 1008.3
20211016214517 51 267 7.0 17.0 0.01 0.06 0.05 74 1008.3
20211016214417 51 269 7.0 17.0 0.01 0.06 0.05 74 1008.3
20211016214316 51 270 8.0 17.0 0.01 0.06 0.05 74 1008.3
20211016214216 51 269 8.0 17.0 0.01 0.06 0.05 73 1008.2
20211016214117 51 270 7.0 17.0 0.01 0.06 0.05 73 1008.2
20211016214017 51 271 6.0 17.0 0.01 0.06 0.05 73 1008.2
20211016213916 51 272 6.0 17.0 0.01 0.06 0.05 73 1008.2
20211016213817 51 274 6.0 17.0 0.01 0.06 0.05 73 1008.2
20211016213717 51 278 5.0 17.0 0.01 0.06 0.05 74 1008.2
20211016213616 52 279 5.0 15.0 0.01 0.06 0.05 73 1008.4
20211016213518 52 276 6.0 15.0 0.01 0.06 0.05 73 1008.3
20211016213417 52 274 5.0 15.0 0.01 0.06 0.05 74 1008.3
20211016213316 52 274 6.0 15.0 0.01 0.06 0.05 74 1008.4
20211016213217 52 271 6.0 15.0 0.01 0.06 0.05 73 1008.3
20211016213117 52 270 7.0 15.0 0.01 0.06 0.05 72 1008.3
20211016213018 52 270 7.0 16.0 0.01 0.06 0.05 72 1008.3
20211016212917 53 269 8.0 17.0 0.01 0.06 0.05 71 1008.3
20211016212817 53 268 9.0 18.0 0.01 0.06 0.05 71 1008.2
20211016212716 53 267 10.0 18.0 0.01 0.06 0.05 71 1008.3
20211016212617 53 266 10.0 25.0 0.01 0.06 0.05 71 1008.2
20211016212517 53 265 11.0 25.0 0.01 0.06 0.05 71 1008.2
20211016212416 53 265 12.0 25.0 0.01 0.06 0.05 71 1008.2
20211016212317 53 265 13.0 25.0 0.01 0.06 0.05 71 1008.2
20211016212217 53 265 14.0 26.0 0.01 0.06 0.05 71 1008.2
20211016212116 53 266 15.0 26.0 0.01 0.06 0.05 70 1008.1
20211016212017 53 266 15.0 26.0 0.01 0.06 0.05 69 1008.1
20211016211917 53 266 15.0 26.0 0.01 0.06 0.05 70 1008.1
20211016211816 53 266 15.0 26.0 0.01 0.06 0.05 69 1008.0
20211016211717 53 266 15.0 26.0 0.01 0.06 0.05 69 1008.0
20211016211617 53 267 15.0 26.0 0.01 0.06 0.05 69 1008.0
20211016211517 53 267 15.0 26.0 0.01 0.06 0.05 69 1008.0
20211016211417 53 266 15.0 26.0 0.01 0.06 0.05 69 1008.0
20211016211317 53 265 15.0 26.0 0.01 0.06 0.05 68 1008.0
20211016211216 53 265 15.0 25.0 0.01 0.06 0.05 70 1008.0
20211016211117 53 265 14.0 25.0 0.01 0.06 0.05 71 1008.0
20211016211017 53 263 14.0 25.0 0.01 0.06 0.05 71 1008.0
20211016210916 53 262 13.0 25.0 0.01 0.06 0.05 71 1008.0
20211016210817 53 262 13.0 25.0 0.01 0.06 0.05 72 1007.9
20211016210716 53 261 12.0 25.0 0.01 0.06 0.05 73 1008.0
20211016210616 53 260 12.0 20.0 0.01 0.06 0.05 73 1008.0
20211016210517 52 260 11.0 20.0 0.01 0.06 0.05 73 1007.9
20211016210416 52 260 11.0 20.0 0.01 0.06 0.05 74 1007.9
20211016210317 52 260 10.0 19.0 0.01 0.07 0.05 75 1008.0
20211016210217 52 257 10.0 17.0 0.01 0.07 0.05 75 1008.0
20211016210116 52 256 10.0 16.0 0.01 0.07 0.05 75 1008.0
20211016210020 51 257 10.0 16.0 0.01 0.07 0.05 75 1007.9
20211016205916 51 257 10.0 16.0 0.01 0.07 0.05 75 1008.0
20211016205817 51 257 10.0 16.0 0.01 0.07 0.05 75 1007.9
20211016205717 51 257 10.0 17.0 0.01 0.07 0.05 76 1007.9
20211016205617 51 258 11.0 20.0 0.01 0.07 0.05 76 1007.9
20211016205517 51 258 11.0 20.0 0.01 0.07 0.05 76 1007.9
20211016205417 51 257 12.0 20.0 0.01 0.07 0.05 76 1007.9
20211016205317 51 257 12.0 20.0 0.01 0.07 0.05 76 1007.9
20211016205216 51 258 12.0 20.0 0.01 0.07 0.05 76 1007.9
20211016205117 51 258 12.0 20.0 0.00 0.06 0.04 75 1007.9
20211016205017 51 257 12.0 20.0 0.00 0.06 0.04 74 1007.9
20211016204916 51 258 12.0 20.0 0.00 0.06 0.04 74 1007.8
20211016204817 51 258 12.0 20.0 0.00 0.06 0.04 73 1007.9
20211016204716 51 258 12.0 20.0 0.00 0.06 0.04 72 1007.8
20211016204617 52 257 11.0 20.0 0.00 0.06 0.04 72 1007.9
20211016204518 52 257 11.0 16.0 0.00 0.06 0.04 72 1008.0
20211016204416 52 257 11.0 16.0 0.00 0.06 0.04 72 1007.9
20211016204316 52 257 11.0 16.0 0.00 0.06 0.04 71 1007.9
20211016204217 52 256 11.0 16.0 0.00 0.06 0.04 71 1007.8
20211016204117 52 256 11.0 18.0 0.00 0.06 0.04 71 1007.8
20211016204017 52 258 11.0 18.0 0.00 0.06 0.04 71 1007.9
20211016203917 52 258 12.0 20.0 0.00 0.06 0.04 71 1007.9
20211016203817 52 257 12.0 20.0 0.00 0.06 0.04 72 1007.9
20211016203716 52 258 12.0 20.0 0.00 0.06 0.04 72 1007.9
20211016203616 52 258 13.0 20.0 0.00 0.06 0.04 72 1007.8
20211016203516 52 259 13.0 20.0 0.00 0.06 0.04 72 1007.9
20211016203417 51 259 14.0 20.0 0.00 0.06 0.04 71 1007.9
20211016203317 52 259 14.0 21.0 0.00 0.06 0.04 71 1007.8
20211016203216 52 261 15.0 25.0 0.00 0.06 0.04 71 1007.9
20211016203116 52 261 15.0 25.0 0.00 0.06 0.04 71 1007.9
20211016203020 52 260 16.0 25.0 0.00 0.06 0.04 71 1007.9
20211016202916 52 261 16.0 25.0 0.00 0.06 0.04 71 1007.9
20211016202817 52 262 16.0 25.0 0.00 0.06 0.04 71 1007.9
20211016202716 52 262 16.0 25.0 0.00 0.06 0.04 71 1007.9
20211016202616 52 263 16.0 25.0 0.00 0.06 0.04 71 1007.9
20211016202517 52 264 16.0 25.0 0.00 0.06 0.04 71 1007.8
20211016202417 52 264 16.0 25.0 0.00 0.06 0.04 71 1007.8
20211016202316 52 265 15.0 25.0 0.00 0.06 0.04 70 1007.8
20211016202216 53 265 15.0 25.0 0.00 0.06 0.04 70 1007.8
20211016202116 53 266 14.0 25.0 0.00 0.06 0.04 70 1007.8
20211016202017 53 267 14.0 25.0 0.00 0.06 0.04 69 1007.7
20211016201916 53 267 14.0 25.0 0.00 0.06 0.04 69 1007.7
20211016201817 53 266 14.0 22.0 0.00 0.06 0.04 68 1007.7
20211016201717 53 265 14.0 20.0 0.00 0.06 0.04 67 1007.6
20211016201617 53 264 14.0 20.0 0.00 0.06 0.04 68 1007.7
20211016201516 53 263 13.0 20.0 0.00 0.06 0.04 67 1007.6
20211016201417 53 264 13.0 20.0 0.00 0.06 0.04 67 1007.7
20211016201317 53 265 13.0 20.0 0.00 0.06 0.04 67 1007.7
20211016201216 53 265 13.0 20.0 0.00 0.06 0.04 67 1007.6
20211016201116 53 265 13.0 20.0 0.00 0.06 0.04 66 1007.6
20211016201017 53 265 13.0 20.0 0.00 0.06 0.04 66 1007.6
20211016200917 53 266 13.0 20.0 0.00 0.06 0.04 66 1007.7
20211016200816 53 267 13.0 19.0 0.00 0.06 0.04 67 1007.7
20211016200716 53 269 12.0 19.0 0.00 0.06 0.04 67 1007.7
20211016200616 53 270 12.0 19.0 0.00 0.06 0.04 67 1007.6
20211016200517 53 269 13.0 19.0 0.00 0.06 0.04 66 1007.7
20211016200416 53 267 13.0 19.0 0.00 0.06 0.04 67 1007.7
20211016200317 54 266 13.0 20.0 0.00 0.06 0.04 67 1007.6
20211016200216 53 266 14.0 20.0 0.00 0.06 0.04 67 1007.6
20211016200116 53 265 14.0 20.0 0.00 0.06 0.04 68 1007.6
20211016200019 53 265 14.0 20.0 0.00 0.06 0.04 68 1007.6
20211016195917 53 264 14.0 20.0 0.00 0.06 0.04 67 1007.6
20211016195817 53 264 14.0 20.0 0.00 0.06 0.04 68 1007.6
20211016195716 53 263 15.0 20.0 0.00 0.06 0.04 68 1007.6
20211016195616 53 262 15.0 22.0 0.00 0.06 0.04 68 1007.6
20211016195516 53 263 15.0 22.0 0.00 0.06 0.04 68 1007.6
20211016195417 53 263 16.0 23.0 0.00 0.06 0.04 68 1007.6
20211016195317 53 262 15.0 23.0 0.00 0.06 0.04 68 1007.6
20211016195216 53 261 16.0 23.0 0.00 0.06 0.04 68 1007.6
20211016195116 53 259 16.0 26.0 0.00 0.06 0.04 69 1007.6
20211016195017 53 260 16.0 26.0 0.00 0.06 0.04 69 1007.6
20211016194916 53 260 16.0 26.0 0.00 0.06 0.04 68 1007.6
20211016194817 53 259 16.0 26.0 0.00 0.06 0.04 68 1007.5
20211016194717 53 259 16.0 26.0 0.00 0.06 0.04 67 1007.5
20211016194616 53 260 15.0 26.0 0.00 0.06 0.04 67 1007.5
20211016194517 53 261 15.0 26.0 0.00 0.06 0.04 68 1007.4
20211016194417 53 261 14.0 26.0 0.00 0.06 0.04 67 1007.4
20211016194316 53 262 14.0 26.0 0.00 0.06 0.04 66 1007.4
20211016194216 54 263 13.0 26.0 0.00 0.06 0.04 67 1007.4
20211016194116 54 264 12.0 21.0 0.00 0.06 0.04 67 1007.4
20211016194017 54 264 12.0 21.0 0.00 0.06 0.04 68 1007.4
20211016193916 54 262 12.0 21.0 0.00 0.06 0.04 67 1007.4
20211016193816 53 263 11.0 21.0 0.00 0.06 0.04 69 1007.5
20211016193717 53 261 11.0 21.0 0.00 0.06 0.04 69 1007.4
20211016193617 53 260 11.0 21.0 0.00 0.06 0.04 70 1007.5
20211016193516 53 258 11.0 18.0 0.00 0.06 0.04 71 1007.5
20211016193417 53 257 11.0 18.0 0.00 0.06 0.04 70 1007.5
20211016193317 52 256 12.0 19.0 0.00 0.06 0.04 71 1007.5
20211016193216 52 256 13.0 19.0 0.00 0.06 0.04 71 1007.5
20211016193116 52 256 13.0 19.0 0.00 0.06 0.04 70 1007.4
20211016193019 52 256 13.0 19.0 0.00 0.06 0.04 71 1007.5
20211016192916 52 258 13.0 19.0 0.00 0.06 0.04 70 1007.5
20211016192817 52 258 13.0 19.0 0.00 0.06 0.04 71 1007.5
20211016192716 52 258 13.0 19.0 0.00 0.06 0.04 72 1007.5
20211016192616 52 257 13.0 19.0 0.00 0.06 0.04 72 1007.4
20211016192516 52 258 13.0 19.0 0.00 0.06 0.04 72 1007.4
20211016192417 52 258 13.0 19.0 0.00 0.06 0.04 71 1007.4
20211016192317 52 260 12.0 19.0 0.00 0.06 0.04 72 1007.4
20211016192216 52 261 12.0 19.0 0.00 0.06 0.04 72 1007.4
20211016192116 52 261 13.0 20.0 0.00 0.06 0.04 72 1007.4
20211016192017 52 260 13.0 20.0 0.00 0.06 0.04 72 1007.4
20211016191916 52 257 13.0 20.0 0.00 0.06 0.04 72 1007.4
20211016191816 52 257 12.0 20.0 0.00 0.06 0.04 72 1007.4
20211016191717 52 257 12.0 20.0 0.00 0.06 0.04 72 1007.4
20211016191616 52 259 12.0 20.0 0.00 0.06 0.04 72 1007.4
20211016191517 52 259 12.0 20.0 0.00 0.06 0.04 71 1007.4
20211016191417 52 260 12.0 20.0 0.00 0.06 0.04 71 1007.4
20211016191316 52 259 12.0 20.0 0.00 0.06 0.04 71 1007.4
20211016191216 52 258 12.0 20.0 0.00 0.06 0.04 71 1007.3
20211016191116 52 258 12.0 20.0 0.00 0.06 0.04 72 1007.5
20211016191017 52 258 12.0 20.0 0.00 0.06 0.04 72 1007.4
20211016190916 52 259 12.0 20.0 0.00 0.06 0.04 71 1007.4
20211016190816 52 260 13.0 20.0 0.00 0.06 0.04 71 1007.4
20211016190717 52 258 13.0 20.0 0.00 0.06 0.04 71 1007.4
20211016190617 52 258 14.0 21.0 0.00 0.06 0.04 71 1007.4
20211016190516 52 257 14.0 23.0 0.00 0.06 0.04 70 1007.3
20211016190416 52 256 15.0 23.0 0.00 0.06 0.04 71 1007.4
20211016190316 52 256 15.0 23.0 0.00 0.06 0.04 70 1007.3
20211016190217 52 256 15.0 23.0 0.00 0.06 0.04 70 1007.4
20211016190116 52 255 16.0 23.0 0.00 0.06 0.04 70 1007.3
20211016190020 52 255 16.0 23.0 0.00 0.06 0.04 70 1007.4
20211016185916 52 255 16.0 23.0 0.00 0.06 0.04 69 1007.3
20211016185817 53 255 16.0 23.0 0.00 0.06 0.04 69 1007.3
20211016185716 53 257 17.0 23.0 0.00 0.06 0.04 68 1007.3
20211016185616 53 258 17.0 23.0 0.00 0.06 0.04 67 1007.3
20211016185516 53 259 16.0 23.0 0.00 0.06 0.04 68 1007.3
20211016185416 54 259 16.0 23.0 0.00 0.06 0.04 68 1007.3
20211016185317 54 260 15.0 23.0 0.00 0.06 0.04 68 1007.3
20211016185217 54 261 15.0 23.0 0.00 0.06 0.04 68 1007.3
20211016185116 54 263 15.0 23.0 0.00 0.06 0.04 68 1007.3
20211016185016 54 263 15.0 23.0 0.00 0.06 0.04 68 1007.3
20211016184917 54 264 15.0 23.0 0.00 0.06 0.04 67 1007.3
20211016184816 54 264 15.0 23.0 0.00 0.06 0.04 68 1007.3
20211016184717 54 263 14.0 21.0 0.00 0.06 0.04 69 1007.3
20211016184617 54 262 14.0 21.0 0.00 0.06 0.04 69 1007.3
20211016184516 54 263 14.0 21.0 0.00 0.06 0.04 69 1007.2
20211016184416 53 264 14.0 21.0 0.00 0.06 0.04 69 1007.3
20211016184317 53 263 14.0 21.0 0.00 0.06 0.04 69 1007.3
20211016184216 53 262 13.0 20.0 0.00 0.06 0.04 70 1007.3
20211016184116 53 262 13.0 20.0 0.00 0.06 0.04 69 1007.3
20211016184016 53 262 13.0 20.0 0.00 0.06 0.04 69 1007.3
20211016183917 53 262 14.0 25.0 0.00 0.06 0.04 69 1007.3
20211016183816 53 263 14.0 25.0 0.00 0.06 0.04 69 1007.3
20211016183716 53 264 14.0 25.0 0.00 0.06 0.04 69 1007.3
20211016183616 53 264 14.0 25.0 0.00 0.06 0.04 69 1007.3
20211016183517 53 265 14.0 25.0 0.00 0.06 0.04 69 1007.3
20211016183417 53 265 14.0 25.0 0.00 0.06 0.04 68 1007.2
20211016183316 53 266 14.0 25.0 0.00 0.06 0.04 69 1007.2
20211016183216 53 265 14.0 25.0 0.00 0.06 0.04 68 1007.2
20211016183116 53 264 14.0 25.0 0.00 0.06 0.04 68 1007.2
20211016183019 53 263 14.0 25.0 0.00 0.06 0.04 69 1007.2
20211016182916 53 263 13.0 24.0 0.00 0.06 0.04 70 1007.3
20211016182816 53 262 13.0 24.0 0.00 0.06 0.04 70 1007.2
20211016182717 53 262 13.0 24.0 0.00 0.06 0.04 70 1007.2
20211016182617 53 261 13.0 24.0 0.00 0.06 0.04 70 1007.2
20211016182517 53 261 13.0 21.0 0.00 0.06 0.04 72 1007.3
20211016182416 52 259 13.0 21.0 0.00 0.06 0.04 72 1007.2
20211016182316 52 259 13.0 21.0 0.00 0.06 0.04 72 1007.3
20211016182216 52 261 13.0 21.0 0.00 0.06 0.04 72 1007.2
20211016182117 52 262 14.0 23.0 0.00 0.06 0.04 72 1007.2
20211016182016 52 263 14.0 23.0 0.00 0.06 0.04 72 1007.3
20211016181916 52 263 15.0 23.0 0.00 0.06 0.04 72 1007.2
20211016181817 52 265 15.0 23.0 0.00 0.06 0.04 72 1007.2
20211016181716 52 266 14.0 23.0 0.00 0.06 0.04 72 1007.3
20211016181616 52 267 14.0 23.0 0.00 0.06 0.04 73 1007.2
20211016181516 52 268 14.0 23.0 0.00 0.06 0.04 73 1007.3
20211016181416 51 270 14.0 23.0 0.00 0.06 0.04 72 1007.2
20211016181318 51 270 14.0 23.0 0.00 0.06 0.04 72 1007.3
20211016181216 51 270 14.0 23.0 0.00 0.06 0.04 72 1007.2
20211016181116 51 270 13.0 22.0 0.00 0.06 0.04 72 1007.2
20211016181016 51 270 13.0 21.0 0.00 0.06 0.04 72 1007.3
20211016180916 51 269 13.0 22.0 0.00 0.06 0.04 72 1007.3
20211016180817 51 268 14.0 22.0 0.00 0.06 0.04 72 1007.3
20211016180716 51 267 14.0 23.0 0.00 0.06 0.04 72 1007.3
20211016180616 51 267 14.0 23.0 0.00 0.06 0.04 72 1007.3
20211016180517 51 266 14.0 23.0 0.00 0.06 0.04 72 1007.4
20211016180416 51 265 14.0 23.0 0.00 0.06 0.04 72 1007.4
20211016180316 51 264 14.0 23.0 0.00 0.06 0.04 72 1007.4
20211016180216 51 264 14.0 23.0 0.00 0.06 0.04 72 1007.3
20211016180116 52 264 14.0 23.0 0.00 0.06 0.04 71 1007.3
20211016180019 52 265 14.0 23.0 0.00 0.06 0.04 71 1007.3
20211016175916 52 264 14.0 23.0 0.00 0.06 0.04 71 1007.3
20211016175817 52 264 14.0 23.0 0.00 0.06 0.04 71 1007.3
20211016175716 52 264 14.0 23.0 0.00 0.06 0.04 72 1007.3
20211016175616 52 266 14.0 23.0 0.00 0.06 0.04 71 1007.3
20211016175517 53 264 15.0 25.0 0.00 0.06 0.04 71 1007.3
20211016175416 53 263 16.0 29.0 0.00 0.06 0.04 71 1007.3
20211016175316 53 262 16.0 29.0 0.00 0.06 0.04 70 1007.3
20211016175216 53 261 17.0 29.0 0.00 0.06 0.04 70 1007.3
20211016175117 53 260 17.0 29.0 0.00 0.06 0.04 70 1007.2
20211016175016 54 259 17.0 29.0 0.00 0.06 0.04 69 1007.2
20211016174916 54 259 16.0 29.0 0.00 0.06 0.04 69 1007.2
20211016174816 54 259 16.0 29.0 0.00 0.06 0.04 69 1007.2
20211016174716 54 259 16.0 29.0 0.00 0.06 0.04 69 1007.2
20211016174616 54 259 16.0 29.0 0.00 0.06 0.04 69 1007.1
20211016174517 54 261 16.0 29.0 0.00 0.06 0.04 69 1007.2
20211016174416 54 261 15.0 25.0 0.00 0.06 0.04 69 1007.2
20211016174316 54 261 16.0 25.0 0.00 0.06 0.04 69 1007.1
20211016174216 54 262 16.0 25.0 0.00 0.06 0.04 70 1007.2
20211016174117 53 263 16.0 25.0 0.00 0.06 0.04 71 1007.2
20211016174017 53 263 16.0 25.0 0.00 0.06 0.04 70 1007.2
20211016173916 53 263 16.0 25.0 0.00 0.06 0.04 70 1007.2
20211016173816 53 262 16.0 25.0 0.00 0.06 0.04 70 1007.2
20211016173716 53 260 17.0 25.0 0.00 0.06 0.04 70 1007.2
20211016173616 53 260 17.0 25.0 0.00 0.06 0.04 69 1007.1
20211016173516 53 260 16.0 25.0 0.00 0.06 0.04 69 1007.2
20211016173416 53 260 16.0 24.0 0.00 0.06 0.04 69 1007.1
20211016173317 53 260 15.0 24.0 0.00 0.06 0.04 69 1007.2
20211016173216 53 260 15.0 24.0 0.00 0.06 0.04 69 1007.2
20211016173116 53 260 15.0 24.0 0.00 0.06 0.04 69 1007.1
20211016173021 53 261 15.0 24.0 0.00 0.06 0.04 69 1007.2
20211016172917 53 262 14.0 24.0 0.00 0.06 0.04 69 1007.2
20211016172816 53 263 14.0 24.0 0.00 0.06 0.04 69 1007.2
20211016172716 53 264 14.0 20.0 0.00 0.06 0.04 70 1007.2
20211016172617 53 263 13.0 19.0 0.00 0.06 0.04 71 1007.2
20211016172516 53 264 14.0 23.0 0.00 0.06 0.04 70 1007.2
20211016172416 53 265 14.0 23.0 0.00 0.06 0.04 69 1007.2
20211016172317 53 266 14.0 26.0 0.00 0.06 0.04 70 1007.2
20211016172216 52 267 14.0 26.0 0.00 0.06 0.04 71 1007.1
20211016172116 52 266 14.0 26.0 0.00 0.06 0.04 70 1007.2
20211016172016 52 266 14.0 26.0 0.00 0.06 0.04 70 1007.2
20211016171916 52 264 15.0 26.0 0.00 0.06 0.04 69 1007.1
20211016171816 52 263 15.0 26.0 0.00 0.06 0.04 69 1007.1
20211016171716 53 263 15.0 26.0 0.00 0.06 0.04 69 1007.1
20211016171616 53 263 16.0 27.0 0.00 0.06 0.04 69 1007.2
20211016171516 53 261 16.0 27.0 0.00 0.06 0.04 68 1007.1
20211016171416 53 261 16.0 27.0 0.00 0.06 0.04 68 1007.1
20211016171316 53 260 16.0 27.0 0.00 0.06 0.04 68 1007.1
20211016171217 53 258 17.0 27.0 0.00 0.06 0.04 69 1007.1
20211016171116 53 258 17.0 27.0 0.00 0.06 0.04 69 1007.1
20211016171017 53 258 17.0 27.0 0.00 0.06 0.04 68 1007.0
20211016170916 53 258 17.0 27.0 0.00 0.06 0.04 69 1007.1
20211016170816 53 258 17.0 27.0 0.00 0.06 0.04 68 1007.0
20211016170716 53 258 17.0 27.0 0.00 0.06 0.04 68 1007.0
20211016170616 53 258 17.0 27.0 0.00 0.06 0.04 69 1007.0
20211016170516 53 259 16.0 27.0 0.00 0.06 0.04 69 1007.0
20211016170417 53 260 16.0 28.0 0.00 0.06 0.04 68 1007.0
20211016170316 53 260 15.0 28.0 0.00 0.06 0.04 68 1006.9
20211016170217 53 262 14.0 28.0 0.00 0.06 0.04 69 1007.0
20211016170116 53 263 14.0 28.0 0.00 0.06 0.04 69 1007.0
20211016170018 53 264 14.0 28.0 0.00 0.06 0.04 69 1007.0
20211016165916 53 265 13.0 28.0 0.00 0.06 0.04 69 1007.0
20211016165817 53 267 13.0 28.0 0.00 0.06 0.04 68 1007.0
20211016165716 53 268 13.0 28.0 0.00 0.06 0.04 68 1007.0
20211016165616 53 269 13.0 28.0 0.00 0.06 0.04 70 1007.0
20211016165516 53 269 12.0 28.0 0.00 0.06 0.04 71 1007.0
20211016165416 53 269 12.0 22.0 0.00 0.06 0.04 72 1007.0
20211016165316 53 268 12.0 22.0 0.00 0.06 0.04 72 1007.0
20211016165217 52 269 12.0 22.0 0.00 0.06 0.04 72 1007.0
20211016165116 52 269 12.0 22.0 0.00 0.06 0.04 72 1007.0
20211016165017 52 269 11.0 19.0 0.00 0.06 0.04 72 1007.0
20211016164916 52 270 11.0 19.0 0.00 0.06 0.04 71 1007.0
20211016164816 52 270 11.0 19.0 0.00 0.06 0.04 71 1007.0
20211016164716 52 268 11.0 19.0 0.00 0.06 0.04 72 1007.1
20211016164616 52 268 11.0 19.0 0.00 0.06 0.04 73 1007.1
20211016164516 52 267 11.0 19.0 0.00 0.06 0.04 72 1007.1
20211016164416 52 266 11.0 19.0 0.00 0.06 0.04 72 1007.1
20211016164316 52 268 11.0 19.0 0.00 0.06 0.04 72 1007.1
20211016164217 52 268 11.0 19.0 0.00 0.06 0.04 72 1007.1
20211016164116 52 268 11.0 18.0 0.00 0.06 0.04 73 1007.1
20211016164017 52 268 11.0 18.0 0.00 0.06 0.04 72 1007.1
20211016163916 52 266 11.0 18.0 0.00 0.06 0.04 72 1007.1
20211016163816 52 266 11.0 18.0 0.00 0.06 0.04 72 1007.1
20211016163716 52 267 11.0 18.0 0.00 0.06 0.04 73 1007.1
20211016163616 52 268 11.0 18.0 0.00 0.06 0.04 73 1007.1
20211016163516 52 268 11.0 18.0 0.00 0.06 0.04 72 1007.1
20211016163416 52 269 11.0 18.0 0.00 0.06 0.04 72 1007.1
20211016163315 52 268 10.0 18.0 0.00 0.06 0.04 72 1007.1
20211016163216 52 268 10.0 18.0 0.00 0.06 0.04 72 1007.1
20211016163116 52 267 10.0 18.0 0.00 0.06 0.04 73 1007.1
20211016163019 52 267 10.0 18.0 0.00 0.06 0.04 73 1007.0
20211016162916 52 268 10.0 18.0 0.00 0.06 0.04 73 1007.0
20211016162816 52 267 11.0 18.0 0.00 0.06 0.04 72 1007.0
20211016162716 52 267 10.0 18.0 0.00 0.06 0.04 73 1007.1
20211016162616 52 266 10.0 18.0 0.00 0.06 0.04 73 1007.1
20211016162516 52 266 11.0 18.0 0.00 0.06 0.04 73 1007.1
20211016162416 52 264 11.0 18.0 0.00 0.06 0.04 73 1007.1
20211016162316 52 264 11.0 18.0 0.00 0.06 0.04 73 1007.2
20211016162216 52 265 12.0 20.0 0.00 0.06 0.04 74 1007.1
20211016162116 52 266 12.0 21.0 0.00 0.06 0.04 74 1007.2
20211016162017 52 266 12.0 21.0 0.00 0.06 0.04 73 1007.1
20211016161916 52 265 13.0 21.0 0.00 0.06 0.04 73 1007.2
20211016161816 52 265 13.0 21.0 0.00 0.06 0.04 74 1007.2
20211016161716 52 264 13.0 21.0 0.00 0.06 0.04 73 1007.1
20211016161615 52 265 14.0 21.0 0.00 0.06 0.04 73 1007.2
20211016161516 52 265 14.0 21.0 0.00 0.06 0.04 73 1007.1
20211016161416 52 265 14.0 21.0 0.00 0.06 0.04 73 1007.1
20211016161316 52 265 14.0 21.0 0.00 0.06 0.04 73 1007.1
20211016161216 51 265 14.0 21.0 0.00 0.06 0.04 73 1007.1
20211016161117 52 264 13.0 19.0 0.00 0.06 0.04 73 1007.1
20211016161016 52 263 13.0 19.0 0.00 0.06 0.04 73 1007.1
20211016160916 52 265 13.0 19.0 0.00 0.06 0.04 73 1007.1
20211016160816 52 265 12.0 19.0 0.00 0.06 0.04 73 1007.1
20211016160716 52 266 12.0 19.0 0.00 0.06 0.04 73 1007.1
20211016160616 52 266 12.0 19.0 0.00 0.06 0.04 73 1007.1
20211016160516 52 267 12.0 19.0 0.00 0.06 0.04 73 1007.0
20211016160416 52 268 12.0 18.0 0.00 0.06 0.04 73 1007.1
20211016160316 52 269 11.0 18.0 0.00 0.06 0.04 73 1007.1
20211016160216 52 269 11.0 20.0 0.00 0.06 0.04 73 1007.1
20211016160116 52 269 12.0 20.0 0.00 0.06 0.04 73 1007.1
20211016160019 52 270 12.0 20.0 0.00 0.06 0.04 72 1007.1
20211016155916 52 270 12.0 20.0 0.00 0.06 0.04 72 1007.1
20211016155816 52 270 13.0 20.0 0.00 0.06 0.04 72 1007.1
20211016155716 52 270 13.0 20.0 0.00 0.06 0.04 72 1007.1
20211016155616 52 271 13.0 22.0 0.00 0.06 0.04 72 1007.1
20211016155516 52 270 14.0 22.0 0.00 0.06 0.04 71 1007.1
20211016155416 52 270 14.0 22.0 0.00 0.06 0.04 71 1007.1
20211016155316 52 269 14.0 22.0 0.00 0.06 0.04 71 1007.0
20211016155215 52 269 14.0 23.0 0.00 0.06 0.04 71 1007.0
20211016155116 52 269 14.0 23.0 0.00 0.06 0.04 71 1007.0
20211016155016 52 269 14.0 23.0 0.00 0.06 0.04 70 1007.1
20211016154916 52 270 14.0 23.0 0.00 0.06 0.04 70 1007.0
20211016154816 52 268 13.0 23.0 0.00 0.06 0.04 69 1006.9
20211016154716 52 269 14.0 23.0 0.00 0.06 0.04 70 1007.0
20211016154616 52 268 14.0 25.0 0.00 0.06 0.04 70 1007.0
20211016154516 52 268 14.0 25.0 0.00 0.06 0.04 70 1007.0
20211016154416 52 268 14.0 25.0 0.00 0.06 0.04 69 1007.0
20211016154316 53 268 14.0 25.0 0.00 0.06 0.04 69 1007.2
20211016154216 53 267 15.0 25.0 0.00 0.06 0.04 69 1007.0
20211016154116 53 267 15.0 25.0 0.00 0.06 0.04 69 1006.9
20211016154016 53 267 15.0 25.0 0.00 0.06 0.04 70 1007.0
20211016153916 53 266 14.0 25.0 0.00 0.06 0.04 70 1007.0
20211016153816 53 266 14.0 25.0 0.00 0.06 0.04 70 1007.0
20211016153716 52 265 14.0 25.0 0.00 0.06 0.04 70 1007.0
20211016153616 52 265 13.0 22.0 0.00 0.06 0.04 71 1006.9
20211016153516 52 266 12.0 20.0 0.00 0.06 0.04 72 1007.0
20211016153416 52 267 12.0 20.0 0.00 0.06 0.04 72 1006.9
20211016153316 52 267 12.0 20.0 0.00 0.06 0.04 72 1006.9
20211016153216 52 267 12.0 21.0 0.00 0.06 0.04 73 1006.9
20211016153116 52 266 12.0 21.0 0.00 0.06 0.04 73 1006.9
20211016153019 52 265 12.0 21.0 0.00 0.06 0.04 73 1007.0
20211016152916 52 266 13.0 21.0 0.00 0.06 0.04 73 1006.9
20211016152816 52 267 13.0 21.0 0.00 0.06 0.04 73 1006.9
20211016152715 52 268 13.0 21.0 0.00 0.06 0.04 73 1006.9
20211016152616 52 268 13.0 21.0 0.00 0.06 0.04 72 1006.9
20211016152516 52 268 14.0 21.0 0.00 0.06 0.04 72 1006.9
20211016152416 51 267 13.0 21.0 0.00 0.06 0.04 72 1006.9
20211016152316 51 267 13.0 21.0 0.00 0.06 0.04 73 1006.9
20211016152216 51 267 13.0 20.0 0.00 0.06 0.04 72 1006.9
20211016152116 51 268 12.0 20.0 0.00 0.06 0.04 72 1006.9
20211016152016 51 269 12.0 19.0 0.00 0.06 0.04 73 1006.9
20211016151916 51 268 12.0 19.0 0.00 0.06 0.04 73 1006.9
20211016151815 51 268 12.0 18.0 0.00 0.06 0.04 73 1006.9
20211016151716 51 268 11.0 18.0 0.00 0.06 0.04 73 1006.8
20211016151616 51 267 11.0 18.0 0.00 0.06 0.04 74 1006.9
20211016151516 51 268 11.0 18.0 0.00 0.06 0.04 73 1006.8
20211016151415 51 268 11.0 18.0 0.00 0.06 0.04 74 1006.8
20211016151316 51 268 11.0 18.0 0.00 0.06 0.04 73 1006.8
20211016151216 51 269 11.0 18.0 0.00 0.06 0.04 73 1006.8
20211016151116 51 269 11.0 18.0 0.00 0.06 0.04 74 1006.8
20211016151018 51 268 10.0 18.0 0.00 0.06 0.04 73 1006.8
20211016150916 51 269 10.0 18.0 0.00 0.06 0.04 74 1006.8
20211016150816 51 269 10.0 18.0 0.00 0.06 0.04 73 1006.8
20211016150716 51 268 10.0 18.0 0.00 0.06 0.04 74 1006.8
20211016150616 51 269 10.0 20.0 0.00 0.06 0.04 74 1006.8
20211016150516 51 269 11.0 20.0 0.00 0.06 0.04 74 1006.8
20211016150416 51 270 10.0 20.0 0.00 0.06 0.04 74 1006.8
20211016150316 51 269 11.0 20.0 0.00 0.06 0.04 74 1006.8
20211016150216 51 268 11.0 20.0 0.00 0.06 0.04 74 1006.8
20211016150115 51 269 11.0 20.0 0.00 0.06 0.04 73 1006.8
20211016150018 51 269 12.0 20.0 0.00 0.06 0.04 73 1006.8
20211016145916 51 268 12.0 20.0 0.00 0.06 0.04 73 1006.8
20211016145816 51 267 12.0 20.0 0.00 0.06 0.04 72 1006.8
20211016145716 51 267 12.0 20.0 0.00 0.06 0.04 72 1006.8
20211016145616 51 266 11.0 20.0 0.00 0.06 0.04 73 1006.7
20211016145516 51 267 11.0 21.0 0.00 0.06 0.04 73 1006.8
20211016145416 51 266 12.0 21.0 0.00 0.06 0.04 73 1006.7
20211016145316 52 267 11.0 21.0 0.00 0.06 0.04 73 1006.7
20211016145215 52 268 11.0 21.0 0.00 0.06 0.04 73 1006.7
20211016145115 52 268 11.0 21.0 0.00 0.06 0.04 74 1006.8
20211016145016 52 267 11.0 21.0 0.00 0.06 0.04 73 1006.7
20211016144916 52 268 11.0 21.0 0.00 0.06 0.04 73 1006.7
20211016144816 52 270 11.0 21.0 0.00 0.06 0.04 73 1006.7
20211016144716 52 270 11.0 21.0 0.00 0.06 0.04 72 1006.7
20211016144616 52 268 12.0 21.0 0.00 0.06 0.04 73 1006.8
20211016144516 52 268 12.0 20.0 0.00 0.06 0.04 73 1006.7
20211016144416 52 268 12.0 21.0 0.00 0.06 0.04 73 1006.7
20211016144316 52 268 12.0 21.0 0.00 0.06 0.04 73 1006.7
20211016144216 52 269 13.0 21.0 0.00 0.06 0.04 73 1006.7
20211016144116 52 269 13.0 21.0 0.00 0.06 0.04 72 1006.7
20211016144017 51 268 13.0 21.0 0.00 0.06 0.04 73 1006.7
20211016143915 51 268 13.0 21.0 0.00 0.06 0.04 73 1006.7
20211016143815 52 268 13.0 21.0 0.00 0.06 0.04 72 1006.7
20211016143716 52 269 13.0 21.0 0.00 0.06 0.04 72 1006.7
20211016143615 52 269 13.0 21.0 0.00 0.06 0.04 72 1006.8
20211016143516 52 269 13.0 21.0 0.00 0.06 0.04 71 1006.7
20211016143416 52 269 13.0 21.0 0.00 0.06 0.04 71 1006.7
20211016143316 52 267 13.0 21.0 0.00 0.06 0.04 71 1006.7
20211016143216 52 266 13.0 21.0 0.00 0.06 0.04 72 1006.6
20211016143116 52 266 13.0 21.0 0.00 0.06 0.04 72 1006.7
20211016143018 52 267 12.0 21.0 0.00 0.06 0.04 72 1006.6
20211016142915 52 267 12.0 21.0 0.00 0.06 0.04 71 1006.6
20211016142816 52 267 12.0 19.0 0.00 0.06 0.04 71 1006.7
20211016142715 52 267 11.0 19.0 0.00 0.06 0.04 71 1006.6
20211016142616 52 267 11.0 18.0 0.00 0.06 0.04 72 1006.6
20211016142516 52 268 10.0 18.0 0.00 0.06 0.04 71 1006.6
20211016142416 52 268 10.0 18.0 0.00 0.06 0.04 73 1006.6
20211016142316 52 269 9.0 18.0 0.00 0.06 0.04 72 1006.6
20211016142216 52 269 10.0 18.0 0.00 0.06 0.04 72 1006.6
20211016142115 52 270 10.0 18.0 0.00 0.06 0.04 72 1006.5
20211016142017 52 269 10.0 18.0 0.00 0.06 0.04 72 1006.6
20211016141916 52 270 10.0 18.0 0.00 0.06 0.04 73 1006.6
20211016141816 52 270 10.0 18.0 0.00 0.06 0.04 72 1006.5
20211016141715 52 270 10.0 18.0 0.00 0.06 0.04 72 1006.5
20211016141616 52 270 10.0 18.0 0.00 0.06 0.04 73 1006.5
20211016141516 52 270 11.0 18.0 0.00 0.06 0.04 73 1006.5
20211016141415 52 270 11.0 18.0 0.00 0.06 0.04 72 1006.5
20211016141315 52 270 11.0 18.0 0.00 0.06 0.04 72 1006.5
20211016141216 52 270 10.0 18.0 0.00 0.06 0.04 72 1006.5
20211016141117 52 269 10.0 17.0 0.00 0.06 0.04 73 1006.5
20211016141016 52 269 10.0 17.0 0.00 0.06 0.04 73 1006.5
20211016140916 52 269 10.0 17.0 0.00 0.06 0.04 73 1006.5
20211016140816 52 268 10.0 18.0 0.00 0.06 0.04 73 1006.6
20211016140716 52 269 11.0 18.0 0.00 0.06 0.04 73 1006.5
20211016140615 52 269 11.0 18.0 0.00 0.06 0.04 73 1006.5
20211016140516 52 267 11.0 18.0 0.00 0.06 0.04 73 1006.5
20211016140416 52 267 11.0 18.0 0.00 0.06 0.04 72 1006.5
20211016140316 52 268 11.0 18.0 0.00 0.06 0.04 72 1006.5
20211016140215 52 269 11.0 18.0 0.00 0.06 0.04 72 1006.5
20211016140116 52 268 11.0 18.0 0.00 0.06 0.04 72 1006.5
20211016140018 52 268 11.0 19.0 0.00 0.06 0.04 72 1006.5
20211016135916 52 268 11.0 21.0 0.00 0.06 0.04 73 1006.5
20211016135816 52 270 11.0 21.0 0.00 0.06 0.04 73 1006.5
20211016135716 52 270 10.0 21.0 0.00 0.06 0.04 72 1006.5
20211016135616 52 269 11.0 21.0 0.00 0.06 0.04 72 1006.4
20211016135516 52 270 11.0 21.0 0.00 0.06 0.04 72 1006.4
20211016135415 52 270 12.0 21.0 0.00 0.06 0.04 72 1006.4
20211016135316 52 270 12.0 21.0 0.00 0.06 0.04 71 1006.4
20211016135215 52 270 11.0 21.0 0.00 0.06 0.04 71 1006.4
20211016135116 52 269 11.0 21.0 0.00 0.06 0.04 72 1006.4
20211016135016 52 269 11.0 21.0 0.00 0.06 0.04 72 1006.4
20211016134916 52 268 12.0 21.0 0.00 0.06 0.04 72 1006.4
20211016134816 52 268 11.0 21.0 0.00 0.06 0.04 72 1006.4
20211016134716 52 267 12.0 21.0 0.00 0.06 0.04 72 1006.4
20211016134616 52 267 11.0 21.0 0.00 0.06 0.04 72 1006.4
20211016134519 52 268 11.0 21.0 0.00 0.06 0.04 72 1006.4
20211016134416 52 268 10.0 17.0 0.00 0.06 0.04 71 1006.4
20211016134316 52 269 10.0 17.0 0.00 0.06 0.04 71 1006.4
20211016134217 52 269 10.0 17.0 0.00 0.06 0.04 71 1006.4
20211016134117 52 269 10.0 17.0 0.00 0.06 0.04 71 1006.4
20211016134017 52 270 9.0 17.0 0.00 0.06 0.04 71 1006.4
20211016133916 52 270 9.0 16.0 0.00 0.06 0.04 71 1006.4
20211016133816 52 270 9.0 16.0 0.00 0.06 0.04 72 1006.5
20211016133715 52 271 8.0 13.0 0.00 0.06 0.04 72 1006.4
20211016133616 52 271 8.0 13.0 0.00 0.06 0.04 72 1006.5
20211016133516 52 271 8.0 13.0 0.00 0.06 0.04 72 1006.4
20211016133416 52 270 8.0 13.0 0.00 0.06 0.04 72 1006.5
20211016133315 52 270 8.0 15.0 0.00 0.06 0.04 72 1006.5
20211016133216 52 270 9.0 15.0 0.00 0.06 0.04 72 1006.4
20211016133116 52 270 9.0 15.0 0.00 0.06 0.04 72 1006.4
20211016133018 51 271 9.0 15.0 0.00 0.06 0.04 72 1006.4
20211016132916 51 270 9.0 15.0 0.00 0.06 0.04 72 1006.4
20211016132816 51 271 9.0 15.0 0.00 0.06 0.04 72 1006.5
20211016132716 51 270 9.0 15.0 0.00 0.06 0.04 72 1006.5
20211016132615 51 270 9.0 15.0 0.00 0.06 0.04 72 1006.5
20211016132516 51 270 10.0 15.0 0.00 0.06 0.04 72 1006.5
20211016132416 51 270 10.0 16.0 0.00 0.06 0.04 72 1006.4
20211016132316 51 270 10.0 16.0 0.00 0.06 0.04 72 1006.5
20211016132215 51 271 9.0 16.0 0.00 0.06 0.04 72 1006.4
20211016132116 51 270 10.0 16.0 0.00 0.06 0.04 72 1006.4
20211016132016 51 270 10.0 16.0 0.00 0.06 0.04 72 1006.4
20211016131916 51 269 10.0 16.0 0.00 0.06 0.04 73 1006.5
20211016131815 51 267 10.0 16.0 0.00 0.06 0.04 73 1006.4
20211016131716 51 268 9.0 16.0 0.00 0.06 0.04 73 1006.5
20211016131616 51 267 9.0 16.0 0.00 0.06 0.04 73 1006.4
20211016131516 51 267 9.0 16.0 0.00 0.06 0.04 73 1006.5
20211016131415 51 267 9.0 16.0 0.00 0.06 0.04 73 1006.4
20211016131316 51 267 9.0 16.0 0.00 0.06 0.04 73 1006.4
20211016131216 51 267 9.0 16.0 0.00 0.06 0.04 73 1006.4
20211016131116 51 268 9.0 16.0 0.00 0.06 0.04 73 1006.4
20211016131016 51 267 9.0 16.0 0.00 0.06 0.04 73 1006.4
20211016130917 51 268 9.0 15.0 0.00 0.06 0.04 73 1006.4
20211016130816 51 269 9.0 15.0 0.00 0.06 0.04 73 1006.4
20211016130716 51 270 9.0 15.0 0.00 0.06 0.04 73 1006.4
20211016130616 51 269 9.0 17.0 0.00 0.06 0.04 73 1006.4
20211016130516 51 269 9.0 17.0 0.00 0.06 0.04 73 1006.3
20211016130416 51 268 9.0 17.0 0.00 0.06 0.04 73 1006.4
20211016130316 51 267 9.0 17.0 0.00 0.06 0.04 73 1006.4
20211016130216 51 267 9.0 17.0 0.00 0.06 0.04 73 1006.4
20211016130116 51 266 9.0 17.0 0.00 0.06 0.04 73 1006.4
20211016130018 51 267 9.0 17.0 0.00 0.06 0.04 73 1006.4
20211016125915 51 267 9.0 17.0 0.00 0.06 0.04 73 1006.4
20211016125816 51 266 9.0 17.0 0.00 0.06 0.04 73 1006.3
20211016125716 51 265 9.0 17.0 0.00 0.06 0.04 73 1006.3
20211016125616 51 266 8.0 15.0 0.00 0.06 0.04 73 1006.3
20211016125516 51 266 8.0 15.0 0.00 0.06 0.04 74 1006.3
20211016125416 51 268 8.0 15.0 0.00 0.06 0.04 74 1006.3
20211016125316 51 268 8.0 15.0 0.00 0.06 0.04 74 1006.3
20211016125216 51 268 8.0 15.0 0.00 0.06 0.04 73 1006.3
20211016125116 51 268 8.0 15.0 0.00 0.06 0.04 74 1006.3
20211016125016 51 268 8.0 18.0 0.00 0.06 0.04 74 1006.3
20211016124916 51 269 8.0 18.0 0.00 0.06 0.04 74 1006.3
20211016124815 51 270 8.0 18.0 0.00 0.06 0.04 74 1006.2
20211016124715 51 270 9.0 18.0 0.00 0.06 0.04 74 1006.2
20211016124616 51 270 9.0 18.0 0.00 0.06 0.04 74 1006.3
20211016124516 51 270 9.0 18.0 0.00 0.06 0.04 73 1006.2
20211016124416 51 270 9.0 18.0 0.00 0.06 0.04 73 1006.3
20211016124316 51 270 9.0 18.0 0.00 0.06 0.04 73 1006.2
20211016124215 51 271 9.0 18.0 0.00 0.06 0.04 73 1006.2
20211016124115 51 271 9.0 18.0 0.00 0.06 0.04 73 1006.3
20211016124016 51 270 8.0 14.0 0.00 0.06 0.04 73 1006.2
20211016123916 51 270 8.0 14.0 0.00 0.06 0.04 73 1006.2
20211016123817 51 269 8.0 14.0 0.00 0.06 0.04 73 1006.3
20211016123715 51 269 7.0 12.0 0.00 0.06 0.04 73 1006.2
20211016123616 51 269 7.0 12.0 0.00 0.06 0.04 73 1006.2
20211016123516 51 270 7.0 12.0 0.00 0.06 0.04 73 1006.2
20211016123416 51 270 7.0 12.0 0.00 0.06 0.04 73 1006.2
20211016123316 51 270 6.0 12.0 0.00 0.06 0.04 74 1006.1
20211016123216 51 268 6.0 12.0 0.00 0.06 0.04 74 1006.2
20211016123116 51 268 5.0 12.0 0.00 0.06 0.04 74 1006.2
20211016123022 51 268 5.0 12.0 0.00 0.06 0.04 74 1006.2
20211016122915 51 268 4.0 12.0 0.00 0.06 0.04 74 1006.1
20211016122816 51 267 4.0 9.0 0.00 0.06 0.04 74 1006.1
20211016122716 51 266 4.0 9.0 0.00 0.06 0.04 74 1006.1
20211016122616 51 266 3.0 8.0 0.00 0.06 0.04 74 1006.2
20211016122518 51 266 3.0 9.0 0.00 0.06 0.04 74 1006.1
20211016122416 51 263 3.0 9.0 0.00 0.06 0.04 74 1006.1
20211016122316 51 262 3.0 9.0 0.00 0.06 0.04 74 1006.1
20211016122216 51 263 3.0 9.0 0.00 0.06 0.04 74 1006.1
20211016122116 51 266 3.0 9.0 0.00 0.06 0.04 74 1006.0
20211016122027 51 268 2.0 9.0 0.00 0.06 0.04 74 1006.1
20211016121916 51 271 2.0 9.0 0.00 0.06 0.04 74 1006.1
20211016121816 51 274 2.0 9.0 0.00 0.06 0.04 74 1006.0
20211016121716 51 278 2.0 9.0 0.00 0.06 0.04 74 1006.0
20211016121616 51 275 2.0 9.0 0.00 0.06 0.04 74 1006.1
20211016121517 51 270 2.0 9.0 0.00 0.06 0.04 74 1006.1
20211016121416 51 284 1.0 7.0 0.00 0.06 0.04 74 1006.1
20211016121319 51 298 1.0 9.0 0.00 0.06 0.04 74 1006.1
20211016121218 51 288 2.0 12.0 0.00 0.06 0.04 74 1006.1
20211016121115 51 285 2.0 12.0 0.00 0.06 0.04 74 1006.1
20211016121019 51 283 2.0 12.0 0.00 0.06 0.04 74 1006.0
20211016120916 51 277 2.0 12.0 0.00 0.06 0.04 74 1006.1
20211016120815 51 273 2.0 12.0 0.00 0.06 0.04 74 1006.1
20211016120719 51 274 2.0 12.0 0.00 0.06 0.04 74 1006.0
20211016120615 51 276 3.0 13.0 0.00 0.06 0.04 74 1006.0
20211016120517 51 273 3.0 13.0 0.00 0.06 0.04 74 1006.0
20211016120416 51 271 3.0 13.0 0.00 0.06 0.04 74 1006.1
20211016120316 51 270 3.0 13.0 0.00 0.06 0.04 74 1006.0
20211016120215 51 270 3.0 13.0 0.00 0.06 0.04 74 1006.0
20211016120116 51 270 3.0 13.0 0.00 0.06 0.04 74 1006.0
20211016120023 51 273 3.0 13.0 0.00 0.06 0.04 74 1006.0
20211016115916 51 275 3.0 13.0 0.00 0.06 0.04 74 1006.0
20211016115816 51 274 3.0 13.0 0.00 0.06 0.04 74 1006.1
20211016115716 51 271 3.0 13.0 0.00 0.06 0.04 74 1006.0
20211016115615 51 270 3.0 10.0 0.00 0.06 0.04 74 1006.0
20211016115516 51 270 3.0 10.0 0.00 0.06 0.04 74 1006.0
20211016115416 51 272 3.0 10.0 0.00 0.06 0.04 74 1006.0
20211016115316 51 271 3.0 10.0 0.00 0.06 0.04 74 1006.0
20211016115215 51 270 3.0 10.0 0.00 0.06 0.04 74 1005.9
20211016115116 51 267 3.0 10.0 0.00 0.06 0.04 74 1006.0
20211016115016 51 265 3.0 10.0 0.00 0.06 0.04 74 1006.0
20211016114915 51 264 3.0 10.0 0.00 0.06 0.04 74 1006.0
20211016114816 51 263 3.0 10.0 0.00 0.06 0.04 74 1006.1
20211016114716 51 263 3.0 10.0 0.00 0.06 0.04 74 1006.0
20211016114616 51 265 4.0 10.0 0.00 0.06 0.04 74 1006.0
20211016114515 51 266 4.0 12.0 0.00 0.06 0.04 74 1006.0
20211016114415 51 266 4.0 12.0 0.00 0.06 0.04 74 1006.0
20211016114316 51 268 4.0 12.0 0.00 0.06 0.04 74 1006.1
20211016114216 51 266 4.0 12.0 0.00 0.06 0.04 74 1006.1
20211016114117 51 266 4.0 12.0 0.00 0.06 0.04 74 1006.0
20211016114016 51 265 4.0 12.0 0.00 0.06 0.04 74 1006.0
20211016113915 51 264 4.0 12.0 0.00 0.06 0.04 74 1006.1
20211016113816 51 265 4.0 12.0 0.00 0.06 0.04 74 1006.0
20211016113716 51 268 4.0 12.0 0.00 0.06 0.04 74 1006.0
20211016113616 51 266 4.0 12.0 0.00 0.06 0.04 74 1006.0
20211016113516 51 268 3.0 9.0 0.00 0.06 0.04 74 1005.9
20211016113415 51 267 4.0 9.0 0.00 0.06 0.04 74 1006.0
20211016113316 51 266 3.0 9.0 0.00 0.06 0.04 74 1006.0
20211016113215 51 270 3.0 9.0 0.00 0.06 0.04 74 1006.0
20211016113115 51 273 3.0 9.0 0.00 0.06 0.04 74 1006.0
20211016113018 51 275 3.0 10.0 0.00 0.06 0.04 74 1006.0
20211016112916 51 276 3.0 12.0 0.00 0.06 0.04 74 1006.0
20211016112816 51 277 3.0 12.0 0.00 0.06 0.04 74 1006.0
20211016112715 51 272 3.0 12.0 0.00 0.06 0.04 74 1006.0
20211016112615 51 274 3.0 12.0 0.00 0.06 0.04 74 1005.9
20211016112516 51 271 3.0 12.0 0.00 0.06 0.04 74 1006.0
20211016112415 51 270 3.0 12.0 0.00 0.06 0.04 74 1006.0
20211016112316 51 271 3.0 12.0 0.00 0.06 0.04 74 1005.9
20211016112215 51 268 3.0 12.0 0.00 0.06 0.04 74 1006.0
20211016112115 51 266 3.0 12.0 0.00 0.06 0.04 74 1005.9
20211016112016 51 265 3.0 12.0 0.00 0.06 0.04 74 1006.0
20211016111916 51 265 3.0 10.0 0.00 0.06 0.04 74 1005.9
20211016111815 51 265 4.0 10.0 0.00 0.06 0.04 74 1005.9
20211016111716 51 267 4.0 10.0 0.00 0.06 0.04 74 1005.9
20211016111616 51 267 4.0 10.0 0.00 0.06 0.04 74 1005.9
20211016111516 51 266 4.0 10.0 0.00 0.06 0.04 74 1005.9
20211016111415 51 266 4.0 10.0 0.00 0.06 0.04 74 1005.9
20211016111315 51 268 4.0 10.0 0.00 0.06 0.04 74 1005.8
20211016111216 51 266 4.0 10.0 0.00 0.06 0.04 74 1005.8
20211016111115 51 265 4.0 10.0 0.00 0.06 0.04 74 1005.8
20211016111016 51 264 4.0 10.0 0.00 0.06 0.04 74 1005.8
20211016110916 51 263 4.0 12.0 0.00 0.06 0.04 74 1005.8
20211016110816 51 267 4.0 12.0 0.00 0.06 0.04 74 1005.7
20211016110716 51 268 4.0 16.0 0.00 0.06 0.04 74 1005.7
20211016110615 51 265 5.0 16.0 0.00 0.06 0.04 74 1005.7
20211016110516 51 265 5.0 16.0 0.00 0.06 0.04 74 1005.7
20211016110416 51 266 6.0 18.0 0.00 0.06 0.04 74 1005.7
20211016110315 51 266 6.0 18.0 0.00 0.06 0.04 74 1005.7
20211016110215 51 266 7.0 18.0 0.00 0.06 0.04 74 1005.8
20211016110116 51 266 7.0 18.0 0.00 0.06 0.04 74 1005.8
20211016110018 51 266 7.0 18.0 0.00 0.06 0.04 73 1005.8
20211016105916 51 267 7.0 18.0 0.00 0.06 0.04 73 1005.8
20211016105815 51 266 7.0 18.0 0.00 0.06 0.04 73 1005.7
20211016105716 51 266 6.0 18.0 0.00 0.06 0.04 73 1005.7
20211016105615 51 266 6.0 18.0 0.00 0.06 0.04 73 1005.7
20211016105516 51 268 6.0 18.0 0.00 0.06 0.04 73 1005.7
20211016105415 51 268 5.0 13.0 0.00 0.06 0.04 72 1005.7
20211016105315 51 266 5.0 13.0 0.00 0.06 0.04 72 1005.6
20211016105216 51 266 5.0 10.0 0.00 0.06 0.04 72 1005.6
20211016105116 51 267 4.0 10.0 0.00 0.06 0.04 72 1005.6
20211016105016 51 269 4.0 11.0 0.00 0.06 0.04 72 1005.6
20211016104915 51 269 4.0 11.0 0.00 0.06 0.04 72 1005.6
20211016104816 51 270 4.0 11.0 0.00 0.06 0.04 72 1005.5
20211016104716 51 269 4.0 11.0 0.00 0.06 0.04 72 1005.6
20211016104616 51 270 4.0 11.0 0.00 0.06 0.04 72 1005.6
20211016104515 51 269 4.0 11.0 0.00 0.06 0.04 72 1005.6
20211016104416 51 268 4.0 11.0 0.00 0.06 0.04 72 1005.5
20211016104316 51 266 4.0 11.0 0.00 0.06 0.04 72 1005.6
20211016104215 51 269 3.0 11.0 0.00 0.06 0.04 72 1005.5
20211016104115 51 270 3.0 11.0 0.00 0.06 0.04 72 1005.5
20211016104016 51 265 3.0 11.0 0.00 0.06 0.04 72 1005.4
20211016103915 51 263 4.0 11.0 0.00 0.06 0.04 72 1005.4
20211016103816 51 262 4.0 11.0 0.00 0.06 0.04 72 1005.4
20211016103715 51 264 4.0 11.0 0.00 0.06 0.04 72 1005.3
20211016103616 51 263 4.0 10.0 0.00 0.06 0.04 72 1005.4
20211016103516 51 264 4.0 10.0 0.00 0.06 0.04 72 1005.4
20211016103415 51 265 4.0 10.0 0.00 0.06 0.04 72 1005.5
20211016103316 51 265 5.0 14.0 0.00 0.06 0.04 72 1005.4
20211016103216 51 265 5.0 14.0 0.00 0.06 0.04 72 1005.3
20211016103117 51 265 6.0 14.0 0.00 0.06 0.04 72 1005.4
20211016103028 51 267 6.0 14.0 0.00 0.06 0.04 72 1005.3
20211016102916 51 266 7.0 15.0 0.00 0.06 0.04 72 1005.4
20211016102816 51 267 7.0 15.0 0.00 0.06 0.04 72 1005.4
20211016102715 51 268 7.0 15.0 0.00 0.06 0.04 72 1005.4
20211016102615 51 268 7.0 15.0 0.00 0.06 0.04 72 1005.3
20211016102515 51 269 7.0 15.0 0.00 0.06 0.04 71 1005.3
20211016102416 51 270 7.0 15.0 0.00 0.06 0.04 71 1005.3
20211016102316 51 270 7.0 15.0 0.00 0.06 0.04 71 1005.3
20211016102215 51 269 7.0 15.0 0.00 0.06 0.04 71 1005.3
20211016102116 51 269 7.0 15.0 0.00 0.06 0.04 71 1005.3
20211016102016 51 268 7.0 15.0 0.00 0.06 0.04 71 1005.3
20211016101915 51 269 7.0 14.0 0.00 0.06 0.04 71 1005.3
20211016101815 51 268 7.0 14.0 0.00 0.06 0.04 70 1005.3
20211016101715 51 266 7.0 14.0 0.00 0.06 0.04 70 1005.3
20211016101616 51 266 8.0 15.0 0.00 0.06 0.04 70 1005.3
20211016101516 52 265 8.0 15.0 0.00 0.06 0.04 70 1005.3
20211016101415 52 263 7.0 15.0 0.00 0.06 0.04 70 1005.3
20211016101316 52 264 7.0 15.0 0.00 0.06 0.04 69 1005.2
20211016101216 52 265 8.0 15.0 0.00 0.06 0.04 69 1005.2
20211016101117 52 263 8.0 15.0 0.00 0.06 0.04 69 1005.3
20211016101016 52 262 7.0 15.0 0.00 0.06 0.04 69 1005.2
20211016100916 52 263 8.0 17.0 0.00 0.06 0.04 69 1005.2
20211016100815 52 266 8.0 17.0 0.00 0.06 0.04 68 1005.2
20211016100715 52 268 8.0 17.0 0.00 0.06 0.04 68 1005.2
20211016100617 52 269 8.0 17.0 0.00 0.06 0.04 67 1005.3
20211016100515 52 268 8.0 17.0 0.00 0.06 0.04 67 1005.3
20211016100415 52 268 8.0 17.0 0.00 0.06 0.04 67 1005.3
20211016100315 52 268 8.0 17.0 0.00 0.06 0.04 67 1005.3
20211016100216 52 269 8.0 17.0 0.00 0.06 0.04 67 1005.3
20211016100116 52 270 8.0 17.0 0.01 0.06 0.04 67 1005.3
20211016100018 52 270 9.0 17.0 0.01 0.06 0.04 66 1005.3
20211016095915 52 270 9.0 17.0 0.01 0.06 0.04 66 1005.3
20211016095815 52 269 9.0 17.0 0.01 0.06 0.04 65 1005.3
20211016095715 52 267 9.0 17.0 0.01 0.06 0.04 65 1005.3
20211016095615 52 267 9.0 17.0 0.01 0.06 0.04 64 1005.3
20211016095516 52 267 9.0 17.0 0.01 0.06 0.04 63 1005.3
20211016095416 52 267 10.0 17.0 0.01 0.06 0.04 62 1005.3
20211016095315 52 266 10.0 17.0 0.01 0.06 0.04 61 1005.3
20211016095216 52 267 10.0 17.0 0.01 0.06 0.04 60 1005.2
20211016095116 52 267 10.0 17.0 0.01 0.06 0.04 59 1005.3
20211016095016 52 266 10.0 16.0 0.01 0.06 0.04 58 1005.2
20211016094916 52 266 10.0 16.0 0.01 0.06 0.04 55 1005.2
20211016094815 52 265 10.0 16.0 0.01 0.06 0.04 54 1005.1
20211016094716 52 265 10.0 16.0 0.01 0.06 0.04 52 1005.2
20211016094615 52 265 10.0 16.0 0.01 0.06 0.04 51 1005.1
20211016094517 52 265 9.0 14.0 0.01 0.06 0.04 50 1005.1
20211016094416 52 266 9.0 14.0 0.01 0.06 0.04 48 1005.1
20211016094315 51 265 9.0 14.0 0.01 0.06 0.04 47 1005.1
20211016094216 51 264 9.0 14.0 0.01 0.06 0.04 46 1005.0
20211016094115 51 264 9.0 14.0 0.01 0.06 0.04 45 1005.1
20211016094015 51 263 8.0 13.0 0.01 0.06 0.04 45 1005.1
20211016093915 51 262 8.0 13.0 0.01 0.06 0.04 45 1005.1
20211016093815 50 261 8.0 13.0 0.01 0.06 0.04 44 1005.0
20211016093716 50 260 8.0 13.0 0.01 0.06 0.04 44 1005.0
20211016093616 50 258 8.0 13.0 0.02 0.06 0.04 44 1005.0
20211016093515 50 258 7.0 13.0 0.03 0.06 0.04 43 1005.1
20211016093416 50 256 7.0 13.0 0.03 0.06 0.04 43 1005.0
20211016093315 50 254 6.0 13.0 0.03 0.06 0.04 43 1005.0
20211016093215 50 253 6.0 13.0 0.03 0.06 0.04 43 1005.0
20211016093116 50 252 5.0 13.0 0.04 0.06 0.04 43 1005.0
20211016093018 49 251 4.0 13.0 0.04 0.06 0.04 43 1005.0
20211016092915 49 250 3.0 13.0 0.04 0.06 0.04 43 1005.0
20211016092815 49 247 3.0 13.0 0.04 0.06 0.04 43 1005.0
20211016092716 49 243 2.0 10.0 0.04 0.06 0.04 43 1005.0
20211016092615 49 239 1.0 10.0 0.04 0.06 0.04 43 1005.1
20211016092515 49 235 1.0 7.0 0.04 0.06 0.04 44 1005.0
20211016092416 49 225 0.0 5.0 0.04 0.06 0.04 44 1005.0
20211016092315 49 174 0.0 2.0 0.04 0.06 0.04 44 1005.0
20211016092215 49 174 0.0 2.0 0.04 0.06 0.04 44 1005.0
20211016092116 49 174 0.0 2.0 0.04 0.06 0.04 44 1005.0
20211016092016 49 174 0.0 2.0 0.04 0.06 0.04 44 1005.0
20211016091916 49 174 0.0 2.0 0.04 0.06 0.04 44 1005.0
20211016091816 49 174 0.0 2.0 0.04 0.06 0.04 44 1005.0
20211016091715 49 174 0.0 2.0 0.04 0.06 0.04 44 1004.9
20211016091616 49 175 0.0 2.0 0.04 0.06 0.04 44 1005.0
20211016091516 49 175 0.0 2.0 0.04 0.06 0.04 44 1004.9
20211016091415 49 175 0.0 2.0 0.04 0.06 0.04 44 1004.9
20211016091316 49 175 0.0 2.0 0.04 0.06 0.04 44 1004.9
20211016091215 49 175 0.0 2.0 0.04 0.06 0.04 44 1004.9
20211016091116 49 175 0.0 2.0 0.04 0.06 0.04 44 1004.9
20211016091016 49 175 0.0 3.0 0.04 0.06 0.04 44 1004.9
20211016090915 49 175 0.0 3.0 0.04 0.06 0.04 44 1004.9
20211016090815 49 175 0.0 3.0 0.04 0.06 0.04 44 1005.0
20211016090715 49 174 1.0 3.0 0.04 0.06 0.04 44 1005.0
20211016090616 49 175 1.0 4.0 0.04 0.06 0.04 44 1005.0
20211016090517 49 174 1.0 4.0 0.04 0.06 0.04 44 1005.0
20211016090415 49 175 1.0 4.0 0.04 0.06 0.04 45 1005.0
20211016090315 49 175 1.0 4.0 0.04 0.06 0.04 45 1005.0
20211016090215 49 174 1.0 4.0 0.03 0.05 0.03 45 1005.0
20211016090116 49 174 1.0 4.0 0.03 0.05 0.03 45 1005.1
20211016090019 49 174 1.0 4.0 0.03 0.05 0.03 45 1005.1
20211016085915 49 175 1.0 4.0 0.03 0.05 0.03 45 1005.2
20211016085815 49 174 1.0 4.0 0.03 0.05 0.03 45 1005.2
20211016085716 49 174 1.0 4.0 0.03 0.05 0.03 45 1005.2
20211016085616 49 174 1.0 3.0 0.03 0.05 0.03 45 1005.2
20211016085516 49 173 1.0 4.0 0.03 0.05 0.03 45 1005.2
20211016085415 49 172 1.0 4.0 0.03 0.05 0.03 45 1005.2
20211016085315 49 170 1.0 4.0 0.03 0.05 0.03 45 1005.2
20211016085215 49 168 1.0 4.0 0.03 0.05 0.03 45 1005.2
20211016085116 49 167 1.0 4.0 0.03 0.05 0.03 46 1005.2
20211016085015 49 164 1.0 4.0 0.03 0.05 0.03 46 1005.3
20211016084915 49 160 1.0 4.0 0.03 0.05 0.03 46 1005.2
20211016084815 49 157 1.0 4.0 0.03 0.05 0.03 46 1005.3
20211016084716 49 154 1.0 4.0 0.03 0.05 0.03 46 1005.3
20211016084616 49 154 1.0 4.0 0.03 0.05 0.03 47 1005.3
20211016084516 49 153 1.0 4.0 0.03 0.05 0.03 47 1005.3
20211016084415 49 157 1.0 3.0 0.03 0.05 0.03 47 1005.3
20211016084315 49 159 1.0 3.0 0.03 0.05 0.03 47 1005.3
20211016084215 49 161 1.0 3.0 0.03 0.05 0.03 47 1005.3
20211016084116 49 163 1.0 3.0 0.03 0.05 0.03 47 1005.3
20211016084016 49 164 1.0 5.0 0.03 0.05 0.03 47 1005.3
20211016083915 49 166 1.0 5.0 0.03 0.05 0.03 47 1005.3
20211016083816 49 167 1.0 5.0 0.03 0.05 0.03 47 1005.3
20211016083715 49 172 1.0 5.0 0.03 0.05 0.03 47 1005.4
20211016083616 49 171 1.0 5.0 0.02 0.04 0.02 47 1005.4
20211016083516 49 170 1.0 5.0 0.01 0.03 0.01 47 1005.3
20211016083416 49 168 1.0 5.0 0.01 0.03 0.01 47 1005.3
20211016083315 49 167 1.0 5.0 0.01 0.03 0.01 47 1005.4
20211016083215 49 167 1.0 5.0 0.00 0.02 0.00 48 1005.3
20211016083116 49 167 1.0 5.0 0.00 0.02 0.00 48 1005.3
20211016083019 49 167 1.0 4.0 0.00 0.02 0.00 48 1005.3
20211016082915 49 167 1.0 4.0 0.00 0.02 0.00 48 1005.3
20211016082815 49 168 1.0 4.0 0.00 0.02 0.00 48 1005.3
20211016082715 49 168 1.0 4.0 0.00 0.02 0.00 48 1005.3
20211016082616 49 168 1.0 4.0 0.00 0.02 0.00 48 1005.3
20211016082516 49 168 1.0 4.0 0.00 0.02 0.00 48 1005.3
20211016082415 49 168 1.0 4.0 0.00 0.02 0.00 48 1005.3
20211016082315 49 167 1.0 4.0 0.00 0.02 0.00 48 1005.3
20211016082215 49 166 1.0 4.0 0.00 0.02 0.00 48 1005.4
20211016082116 49 165 1.0 4.0 0.00 0.02 0.00 48 1005.4
20211016082016 49 163 1.0 4.0 0.00 0.02 0.00 48 1005.3
20211016081915 49 162 1.0 4.0 0.00 0.02 0.00 48 1005.4
20211016081816 49 161 1.0 5.0 0.00 0.02 0.00 48 1005.4
20211016081716 49 161 1.0 7.0 0.00 0.02 0.00 48 1005.4
20211016081615 49 161 1.0 7.0 0.00 0.02 0.00 48 1005.5
20211016081516 49 162 1.0 7.0 0.00 0.02 0.00 48 1005.5
20211016081415 49 162 1.0 7.0 0.00 0.02 0.00 48 1005.5
20211016081315 49 162 1.0 7.0 0.00 0.02 0.00 48 1005.5
20211016081215 49 162 1.0 7.0 0.00 0.02 0.00 48 1005.6
20211016081116 49 164 1.0 7.0 0.00 0.02 0.00 48 1005.6
20211016081016 49 168 1.0 7.0 0.00 0.02 0.00 48 1005.6
20211016080916 49 174 1.0 7.0 0.00 0.02 0.00 48 1005.6
20211016080815 49 182 1.0 7.0 0.00 0.02 0.00 48 1005.6
20211016080715 49 185 1.0 5.0 0.00 0.02 0.00 48 1005.7
20211016080616 49 186 1.0 5.0 0.00 0.02 0.00 48 1005.7
20211016080516 49 188 1.0 5.0 0.00 0.02 0.00 48 1005.7
20211016080415 49 191 1.0 5.0 0.00 0.02 0.00 48 1005.7
20211016080315 49 197 1.0 4.0 0.00 0.02 0.00 48 1005.6
20211016080216 49 200 1.0 4.0 0.00 0.02 0.00 48 1005.7
20211016080116 49 200 1.0 4.0 0.00 0.02 0.00 48 1005.7
20211016080018 49 198 1.0 4.0 0.00 0.02 0.00 48 1005.6
20211016075915 49 192 1.0 4.0 0.00 0.02 0.00 48 1005.6
20211016075815 49 184 1.0 3.0 0.00 0.02 0.00 48 1005.7
20211016075715 49 184 1.0 3.0 0.00 0.02 0.00 48 1005.7
20211016075615 49 184 1.0 4.0 0.00 0.02 0.00 48 1005.7
20211016075516 49 185 1.0 4.0 0.00 0.02 0.00 48 1005.7
20211016075415 49 187 1.0 4.0 0.00 0.02 0.00 48 1005.6
20211016075315 49 188 1.0 4.0 0.00 0.02 0.00 48 1005.6
20211016075215 49 190 1.0 4.0 0.00 0.02 0.00 48 1005.6
20211016075115 49 192 1.0 4.0 0.00 0.02 0.00 48 1005.7
20211016075016 49 193 1.0 4.0 0.00 0.02 0.00 49 1005.7
20211016074916 48 194 1.0 4.0 0.00 0.02 0.00 49 1005.6
20211016074816 48 192 2.0 4.0 0.00 0.02 0.00 49 1005.6
20211016074715 48 188 2.0 4.0 0.00 0.02 0.00 49 1005.6
20211016074616 48 187 2.0 4.0 0.00 0.02 0.00 49 1005.6
20211016074516 48 187 1.0 4.0 0.00 0.02 0.00 48 1005.6
20211016074416 48 184 1.0 4.0 0.00 0.02 0.00 48 1005.7
20211016074315 48 181 1.0 4.0 0.00 0.02 0.00 49 1005.7
20211016074215 48 178 1.0 4.0 0.00 0.02 0.00 49 1005.7
20211016074115 48 173 1.0 4.0 0.00 0.02 0.00 49 1005.7
20211016074016 48 170 1.0 4.0 0.00 0.02 0.00 49 1005.8
20211016073915 48 162 1.0 4.0 0.00 0.02 0.00 49 1005.8
20211016073816 48 159 0.0 4.0 0.00 0.02 0.00 49 1005.8
20211016073715 48 155 0.0 4.0 0.00 0.02 0.00 49 1005.8
20211016073615 48 154 0.0 2.0 0.00 0.02 0.00 50 1005.8
20211016073517 48 153 0.0 2.0 0.00 0.02 0.00 50 1005.8
20211016073415 48 153 0.0 2.0 0.00 0.02 0.00 50 1005.7
20211016073315 48 152 0.0 1.0 0.00 0.02 0.00 50 1005.8
20211016073215 48 152 0.0 1.0 0.00 0.02 0.00 50 1005.7
20211016073115 48 152 0.0 1.0 0.00 0.02 0.00 51 1005.8
20211016073020 48 152 0.0 1.0 0.00 0.02 0.00 51 1005.8
20211016072916 48 152 0.0 1.0 0.00 0.02 0.00 51 1005.8
20211016072815 48 149 0.0 3.0 0.00 0.02 0.00 51 1005.8
20211016072715 48 149 0.0 3.0 0.00 0.02 0.00 52 1005.8
20211016072615 48 153 0.0 4.0 0.00 0.02 0.00 52 1005.8
20211016072516 48 159 1.0 5.0 0.00 0.02 0.00 52 1005.8
20211016072415 48 160 1.0 5.0 0.00 0.02 0.00 52 1005.8
20211016072315 48 161 1.0 5.0 0.00 0.02 0.00 53 1005.8
20211016072215 48 161 1.0 5.0 0.00 0.02 0.00 53 1005.9
20211016072115 48 161 1.0 5.0 0.00 0.02 0.00 53 1005.9
20211016072017 48 160 1.0 5.0 0.00 0.02 0.00 53 1005.9
20211016071915 48 159 2.0 5.0 0.00 0.02 0.00 53 1005.9
20211016071816 48 162 1.0 5.0 0.00 0.02 0.00 53 1005.9
20211016071716 48 163 1.0 5.0 0.00 0.02 0.00 53 1006.0
20211016071616 48 164 1.0 5.0 0.00 0.02 0.00 53 1006.0
20211016071517 48 163 1.0 4.0 0.00 0.02 0.00 53 1006.0
20211016071415 48 162 1.0 4.0 0.00 0.02 0.00 53 1006.0
20211016071316 48 161 1.0 4.0 0.00 0.02 0.00 54 1006.0
20211016071215 48 164 0.0 3.0 0.00 0.02 0.00 54 1006.0
20211016071116 48 166 0.0 3.0 0.00 0.02 0.00 54 1006.1
20211016071016 48 184 0.0 3.0 0.00 0.02 0.00 54 1006.1
20211016070915 48 230 0.0 2.0 0.00 0.02 0.00 54 1006.0
20211016070815 48 250 0.0 2.0 0.00 0.02 0.00 54 1006.0
20211016070715 48 250 0.0 2.0 0.00 0.02 0.00 55 1006.1
20211016070616 48 250 0.0 2.0 0.00 0.02 0.00 55 1006.1
20211016070516 48 250 0.0 2.0 0.00 0.02 0.00 55 1006.1
20211016070415 48 250 0.0 2.0 0.00 0.02 0.00 55 1006.1
20211016070315 48 250 0.0 2.0 0.00 0.02 0.00 55 1006.1
20211016070215 48 250 0.0 2.0 0.00 0.02 0.00 55 1006.1
20211016070118 48 250 0.0 2.0 0.00 0.02 0.00 55 1006.1
20211016070019 48 250 0.0 2.0 0.00 0.02 0.00 55 1006.2
20211016065916 48 250 0.0 2.0 0.00 0.02 0.00 55 1006.2
20211016065815 48 250 0.0 2.0 0.00 0.02 0.00 55 1006.2
20211016065715 48 250 0.0 2.0 0.00 0.02 0.00 55 1006.2
20211016065615 48 250 0.0 2.0 0.00 0.02 0.00 56 1006.1
20211016065515 48 250 0.0 2.0 0.00 0.02 0.00 56 1006.2
20211016065415 48 250 0.0 2.0 0.00 0.02 0.00 56 1006.1
20211016065315 48 250 0.0 2.0 0.00 0.02 0.00 56 1006.1
20211016065216 48 250 0.0 2.0 0.00 0.02 0.00 56 1006.1
20211016065115 48 250 0.0 2.0 0.00 0.02 0.00 56 1006.1
20211016065016 48 250 0.0 1.0 0.00 0.02 0.00 56 1006.1
20211016064915 48 250 0.0 1.0 0.00 0.02 0.00 56 1006.1
20211016064815 48 250 0.0 1.0 0.00 0.02 0.00 56 1006.1
20211016064715 48 250 0.0 1.0 0.00 0.02 0.00 56 1006.1
20211016064615 48 250 0.0 2.0 0.00 0.02 0.00 56 1006.1
20211016064517 48 250 0.0 2.0 0.00 0.02 0.00 56 1006.0
20211016064415 48 250 0.0 2.0 0.00 0.02 0.00 56 1006.0
20211016064315 48 250 0.0 2.0 0.00 0.02 0.00 56 1006.0
20211016064215 48 250 0.0 2.0 0.00 0.02 0.00 56 1006.0
20211016064115 48 250 0.0 2.0 0.00 0.02 0.00 58 1006.1
20211016064015 48 250 0.0 2.0 0.00 0.02 0.00 58 1006.1
20211016063915 48 250 0.0 2.0 0.00 0.02 0.00 56 1006.1
20211016063815 48 250 0.0 2.0 0.00 0.02 0.00 56 1006.1
20211016063715 48 250 0.0 2.0 0.00 0.02 0.00 56 1006.1
20211016063615 48 250 0.0 1.0 0.00 0.02 0.00 56 1006.2
20211016063516 48 250 0.0 1.0 0.00 0.02 0.00 56 1006.2
20211016063415 48 250 0.0 1.0 0.00 0.02 0.00 56 1006.2
20211016063316 48 250 0.0 1.0 0.00 0.02 0.00 56 1006.2
20211016063215 48 0 0.0 0.0 0.00 0.02 0.00 56 1006.2
20211016063115 48 0 0.0 0.0 0.00 0.02 0.00 56 1006.2
20211016063017 48 0 0.0 0.0 0.00 0.02 0.00 56 1006.2
20211016062915 48 251 0.0 1.0 0.00 0.02 0.00 56 1006.2
20211016062815 48 251 0.0 1.0 0.00 0.02 0.00 56 1006.2
20211016062715 48 251 0.0 1.0 0.00 0.02 0.00 56 1006.2
20211016062615 48 251 0.0 1.0 0.00 0.02 0.00 56 1006.2
20211016062515 48 250 0.0 2.0 0.00 0.02 0.00 56 1006.2
20211016062415 48 250 0.0 2.0 0.00 0.02 0.00 55 1006.2
20211016062316 48 250 0.0 2.0 0.00 0.02 0.00 55 1006.2
20211016062215 48 250 0.0 2.0 0.00 0.02 0.00 55 1006.2
20211016062115 48 250 0.0 2.0 0.00 0.02 0.00 55 1006.2
20211016062015 48 250 0.0 2.0 0.00 0.02 0.00 55 1006.3
20211016061915 48 250 0.0 2.0 0.00 0.02 0.00 55 1006.3
20211016061815 48 250 0.0 2.0 0.00 0.02 0.00 55 1006.3
20211016061715 48 250 0.0 2.0 0.00 0.02 0.00 56 1006.2
20211016061615 48 250 0.0 2.0 0.00 0.02 0.00 56 1006.3
20211016061515 48 250 0.0 1.0 0.00 0.02 0.00 56 1006.3
20211016061415 48 250 0.0 1.0 0.00 0.02 0.00 56 1006.3
20211016061315 48 250 0.0 1.0 0.00 0.02 0.00 56 1006.3
20211016061215 48 250 0.0 1.0 0.00 0.02 0.00 56 1006.3
20211016061115 48 250 0.0 1.0 0.00 0.02 0.00 56 1006.3
20211016061015 48 250 0.0 1.0 0.00 0.02 0.00 56 1006.3
20211016060915 48 250 0.0 1.0 0.00 0.02 0.00 56 1006.3
20211016060815 48 250 0.0 1.0 0.00 0.02 0.00 56 1006.3
20211016060715 48 250 0.0 1.0 0.00 0.02 0.00 56 1006.4
20211016060615 48 250 0.0 1.0 0.00 0.02 0.00 56 1006.4
20211016060516 48 250 0.0 1.0 0.00 0.02 0.00 57 1006.4
20211016060415 48 250 0.0 1.0 0.00 0.02 0.00 57 1006.4
20211016060315 48 250 0.0 1.0 0.00 0.02 0.00 57 1006.4
20211016060215 48 250 0.0 1.0 0.00 0.02 0.00 57 1006.4
20211016060115 48 250 0.0 1.0 0.00 0.02 0.00 57 1006.4
20211016060018 48 250 0.0 1.0 0.00 0.02 0.00 57 1006.4
20211016055915 48 250 0.0 1.0 0.00 0.02 0.00 57 1006.4
20211016055815 48 250 0.0 1.0 0.00 0.02 0.00 57 1006.4
20211016055715 48 250 0.0 1.0 0.00 0.02 0.00 57 1006.4
20211016055615 48 250 0.0 1.0 0.00 0.02 0.00 57 1006.4
20211016055515 48 250 0.0 1.0 0.00 0.02 0.00 57 1006.5
20211016055416 48 250 0.0 1.0 0.00 0.02 0.00 57 1006.5
20211016055315 48 250 0.0 2.0 0.00 0.02 0.00 57 1006.5
20211016055215 48 250 0.0 2.0 0.00 0.02 0.00 57 1006.5
20211016055115 49 250 0.0 2.0 0.00 0.02 0.00 57 1006.5
20211016055016 49 250 0.0 2.0 0.00 0.02 0.00 57 1006.4
20211016054915 49 250 0.0 2.0 0.00 0.02 0.00 57 1006.5
20211016054815 49 250 0.0 2.0 0.00 0.02 0.00 57 1006.5
20211016054715 49 250 0.0 4.0 0.00 0.02 0.00 57 1006.4
20211016054615 49 250 0.0 4.0 0.00 0.02 0.00 57 1006.4
20211016054516 49 250 0.0 4.0 0.00 0.02 0.00 57 1006.4
20211016054415 49 250 0.0 4.0 0.00 0.02 0.00 57 1006.4
20211016054315 49 250 0.0 4.0 0.00 0.02 0.00 57 1006.4
20211016054215 48 250 0.0 4.0 0.00 0.02 0.00 57 1006.3
20211016054115 49 250 0.0 4.0 0.00 0.02 0.00 57 1006.3
20211016054015 48 250 0.0 4.0 0.00 0.02 0.00 57 1006.4
20211016053915 48 250 1.0 4.0 0.00 0.02 0.00 57 1006.3
20211016053816 48 250 1.0 4.0 0.00 0.02 0.00 56 1006.3
20211016053715 48 250 1.0 4.0 0.00 0.02 0.00 56 1006.3
20211016053616 48 250 1.0 4.0 0.00 0.02 0.00 56 1006.2
20211016053515 48 250 1.0 4.0 0.00 0.02 0.00 56 1006.2
20211016053415 48 250 1.0 4.0 0.00 0.02 0.00 56 1006.2
20211016053315 48 250 1.0 4.0 0.00 0.02 0.00 56 1006.2
20211016053215 48 250 1.0 4.0 0.00 0.02 0.00 56 1006.2
20211016053115 48 249 1.0 4.0 0.00 0.02 0.00 56 1006.1
20211016053020 48 250 0.0 4.0 0.00 0.02 0.00 56 1006.2
20211016052916 48 250 0.0 4.0 0.00 0.02 0.00 56 1006.2
20211016052815 48 248 0.0 2.0 0.00 0.02 0.00 56 1006.2
20211016052715 48 248 0.0 2.0 0.00 0.02 0.00 56 1006.1
20211016052615 48 248 0.0 2.0 0.00 0.02 0.00 57 1006.1
20211016052515 48 248 0.0 2.0 0.00 0.02 0.00 57 1006.1
20211016052415 48 248 0.0 2.0 0.00 0.02 0.00 57 1006.2
20211016052315 48 248 0.0 2.0 0.00 0.02 0.00 57 1006.2
20211016052216 48 248 0.0 1.0 0.00 0.02 0.00 57 1006.2
20211016052115 48 248 0.0 1.0 0.00 0.02 0.00 57 1006.3
20211016052016 48 248 0.0 1.0 0.00 0.02 0.00 57 1006.3
20211016051915 48 248 0.0 1.0 0.00 0.02 0.00 57 1006.4
20211016051815 48 248 0.0 1.0 0.00 0.02 0.00 57 1006.4
20211016051715 48 248 0.0 1.0 0.00 0.02 0.00 57 1006.4
20211016051615 48 248 0.0 1.0 0.00 0.02 0.00 57 1006.4
20211016051517 48 248 0.0 1.0 0.00 0.02 0.00 58 1006.4
20211016051415 48 248 0.0 1.0 0.00 0.02 0.00 58 1006.4
20211016051315 48 248 0.0 1.0 0.00 0.02 0.00 58 1006.4
20211016051215 48 248 0.0 1.0 0.00 0.02 0.00 58 1006.4
20211016051115 48 248 0.0 1.0 0.00 0.02 0.00 58 1006.5
20211016051015 48 248 0.0 1.0 0.00 0.02 0.00 59 1006.5
20211016050915 48 248 0.0 1.0 0.00 0.02 0.00 59 1006.6
20211016050815 48 248 0.0 1.0 0.00 0.02 0.00 59 1006.6
20211016050715 48 248 0.0 1.0 0.00 0.02 0.00 59 1006.6
20211016050615 48 248 0.0 1.0 0.00 0.02 0.00 59 1006.6
20211016050515 48 248 0.0 1.0 0.00 0.02 0.00 59 1006.6
20211016050415 48 248 0.0 1.0 0.00 0.02 0.00 60 1006.6
20211016050316 48 248 0.0 1.0 0.00 0.02 0.00 60 1006.6
20211016050215 48 248 0.0 1.0 0.00 0.02 0.00 60 1006.6
20211016050114 48 248 0.0 1.0 0.00 0.02 0.00 60 1006.6
20211016050017 48 248 0.0 1.0 0.00 0.02 0.00 60 1006.6
20211016045915 48 248 0.0 1.0 0.00 0.02 0.00 59 1006.6
20211016045815 48 248 0.0 1.0 0.00 0.02 0.00 59 1006.6
20211016045715 48 248 0.0 1.0 0.00 0.02 0.00 59 1006.7
20211016045615 48 248 0.0 1.0 0.00 0.02 0.00 59 1006.7
20211016045515 48 248 0.0 1.0 0.00 0.02 0.00 59 1006.7
20211016045415 48 248 0.0 1.0 0.00 0.02 0.00 59 1006.8
20211016045315 48 248 0.0 1.0 0.00 0.02 0.00 59 1006.8
20211016045214 48 248 0.0 1.0 0.00 0.02 0.00 59 1006.8
20211016045115 48 248 0.0 1.0 0.00 0.02 0.00 59 1006.8
20211016045015 49 248 0.0 1.0 0.00 0.02 0.00 59 1006.8
20211016044915 49 248 0.0 1.0 0.00 0.02 0.00 59 1006.8
20211016044815 49 248 0.0 1.0 0.00 0.02 0.00 59 1006.8
20211016044715 49 248 0.0 1.0 0.00 0.02 0.00 59 1006.9
20211016044614 49 248 0.0 1.0 0.00 0.02 0.00 59 1006.9
20211016044515 49 248 0.0 1.0 0.00 0.02 0.00 59 1006.9
20211016044415 49 248 0.0 1.0 0.00 0.02 0.00 59 1006.9
20211016044315 49 248 0.0 1.0 0.00 0.02 0.00 59 1007.0
20211016044215 49 248 0.0 2.0 0.00 0.02 0.00 58 1007.0
20211016044115 49 248 0.0 2.0 0.00 0.02 0.00 58 1007.0
20211016044015 49 248 0.0 2.0 0.00 0.02 0.00 58 1007.0
20211016043915 49 248 0.0 2.0 0.00 0.02 0.00 58 1007.0
20211016043815 48 248 0.0 2.0 0.00 0.02 0.00 59 1006.9
20211016043715 48 248 0.0 2.0 0.00 0.02 0.00 59 1007.0
20211016043615 48 248 0.0 2.0 0.00 0.02 0.00 59 1007.0
20211016043515 48 248 0.0 2.0 0.00 0.02 0.00 59 1007.0
20211016043416 48 248 0.0 2.0 0.00 0.02 0.00 59 1007.1
20211016043315 48 248 0.0 2.0 0.00 0.02 0.00 59 1007.1
20211016043215 48 248 0.0 1.0 0.00 0.02 0.00 60 1007.1
20211016043115 48 248 0.0 1.0 0.00 0.02 0.00 60 1007.2
20211016043018 48 248 0.0 1.0 0.00 0.02 0.00 60 1007.2
20211016042915 48 248 0.0 1.0 0.00 0.02 0.00 60 1007.2
20211016042815 48 248 0.0 1.0 0.00 0.02 0.00 61 1007.3
20211016042715 48 248 0.0 2.0 0.00 0.02 0.00 61 1007.3
20211016042615 48 248 0.0 2.0 0.00 0.02 0.00 61 1007.2
20211016042515 48 248 0.0 2.0 0.00 0.02 0.00 61 1007.2
20211016042415 48 248 0.0 2.0 0.00 0.02 0.00 61 1007.2
20211016042315 48 248 0.0 2.0 0.00 0.02 0.00 62 1007.2
20211016042215 48 249 0.0 2.0 0.00 0.02 0.00 62 1007.2
20211016042115 48 249 0.0 2.0 0.00 0.02 0.00 62 1007.1
20211016042015 48 248 0.0 2.0 0.00 0.02 0.00 63 1007.2
20211016041915 48 248 0.0 2.0 0.00 0.02 0.00 63 1007.1
20211016041814 49 248 0.0 2.0 0.00 0.02 0.00 63 1007.1
20211016041715 49 248 0.0 2.0 0.00 0.02 0.00 63 1007.1
20211016041615 49 248 0.0 2.0 0.00 0.02 0.00 64 1007.1
20211016041516 49 248 0.0 2.0 0.00 0.02 0.00 64 1007.1
20211016041415 49 248 0.0 1.0 0.00 0.02 0.00 64 1007.1
20211016041315 49 248 0.0 1.0 0.00 0.02 0.00 64 1007.1
20211016041215 49 0 0.0 0.0 0.00 0.02 0.00 64 1007.1
20211016041115 49 0 0.0 0.0 0.00 0.02 0.00 64 1007.1
20211016041015 49 0 0.0 0.0 0.00 0.02 0.00 64 1007.1
20211016040915 49 0 0.0 0.0 0.00 0.02 0.00 65 1007.1
20211016040815 49 0 0.0 0.0 0.00 0.02 0.00 65 1007.1
20211016040715 49 248 0.0 1.0 0.00 0.02 0.00 65 1007.1
20211016040615 49 248 0.0 1.0 0.00 0.02 0.00 66 1007.1
20211016040516 49 248 0.0 1.0 0.00 0.02 0.00 66 1007.1
20211016040415 49 248 0.0 1.0 0.00 0.02 0.00 66 1007.1
20211016040315 49 248 0.0 3.0 0.00 0.02 0.00 66 1007.1
20211016040215 49 248 0.0 3.0 0.00 0.02 0.00 66 1007.1
20211016040114 49 248 0.0 3.0 0.00 0.02 0.00 67 1007.1
20211016040023 49 248 0.0 3.0 0.00 0.02 0.00 67 1007.2
20211016035915 49 248 0.0 3.0 0.00 0.02 0.02 67 1007.2
20211016035815 49 248 0.0 3.0 0.00 0.02 0.02 67 1007.2
20211016035714 49 248 0.0 3.0 0.00 0.02 0.02 67 1007.2
20211016035615 49 248 0.0 3.0 0.00 0.02 0.02 67 1007.2
20211016035515 49 248 0.0 3.0 0.00 0.02 0.02 67 1007.3
20211016035415 49 249 0.0 3.0 0.00 0.02 0.02 67 1007.3
20211016035315 49 251 0.0 3.0 0.00 0.02 0.02 67 1007.3
20211016035215 49 251 0.0 3.0 0.00 0.02 0.02 68 1007.3
20211016035115 49 251 0.0 4.0 0.00 0.02 0.02 68 1007.4
20211016035015 49 251 0.0 4.0 0.00 0.02 0.02 68 1007.4
20211016034915 49 251 0.0 4.0 0.00 0.02 0.02 68 1007.4
20211016034815 49 251 0.0 4.0 0.00 0.02 0.02 68 1007.4
20211016034715 49 251 0.0 4.0 0.00 0.02 0.02 68 1007.4
20211016034615 49 251 1.0 4.0 0.00 0.02 0.02 68 1007.4
20211016034515 49 251 1.0 5.0 0.00 0.02 0.02 68 1007.4
20211016034415 49 252 1.0 5.0 0.00 0.02 0.02 68 1007.4
20211016034315 49 252 1.0 5.0 0.00 0.02 0.02 68 1007.4
20211016034215 49 252 1.0 5.0 0.00 0.02 0.02 68 1007.4
20211016034115 49 253 1.0 5.0 0.00 0.02 0.02 68 1007.4
20211016034015 49 253 1.0 5.0 0.00 0.02 0.02 68 1007.4
20211016033915 49 253 1.0 5.0 0.00 0.02 0.02 68 1007.4
20211016033814 49 253 1.0 5.0 0.00 0.02 0.02 68 1007.5
20211016033715 49 253 2.0 5.0 0.00 0.02 0.02 68 1007.5
20211016033615 49 252 2.0 5.0 0.00 0.02 0.02 68 1007.5
20211016033515 49 252 2.0 5.0 0.00 0.02 0.02 68 1007.5
20211016033416 49 252 2.0 5.0 0.00 0.02 0.02 68 1007.5
20211016033315 49 252 2.0 7.0 0.00 0.02 0.02 68 1007.5
20211016033214 49 253 2.0 7.0 0.00 0.02 0.02 68 1007.5
20211016033115 49 253 2.0 7.0 0.00 0.02 0.02 68 1007.5
20211016033017 49 255 2.0 7.0 0.00 0.02 0.02 68 1007.5
20211016032915 50 255 3.0 7.0 0.00 0.02 0.02 68 1007.5
20211016032814 50 256 3.0 8.0 0.00 0.02 0.02 68 1007.5
20211016032714 50 256 3.0 8.0 0.00 0.02 0.02 68 1007.5
20211016032615 50 257 3.0 8.0 0.00 0.02 0.02 67 1007.5
20211016032515 50 257 3.0 8.0 0.00 0.02 0.02 67 1007.5
20211016032415 50 258 3.0 8.0 0.00 0.02 0.02 67 1007.5
20211016032315 50 258 3.0 8.0 0.00 0.02 0.02 67 1007.5
20211016032215 50 258 3.0 8.0 0.00 0.02 0.02 66 1007.5
20211016032115 49 258 3.0 8.0 0.00 0.02 0.02 66 1007.4
20211016032015 49 256 3.0 8.0 0.00 0.02 0.02 66 1007.4
20211016031915 49 256 2.0 8.0 0.00 0.02 0.02 66 1007.5
20211016031815 49 255 2.0 8.0 0.00 0.02 0.02 66 1007.4
20211016031715 49 254 2.0 5.0 0.00 0.02 0.02 66 1007.5
20211016031615 49 253 2.0 5.0 0.00 0.02 0.02 66 1007.4
20211016031515 49 252 2.0 5.0 0.00 0.02 0.02 66 1007.4
20211016031415 50 251 1.0 5.0 0.00 0.02 0.02 66 1007.4
20211016031315 50 250 1.0 5.0 0.00 0.02 0.02 66 1007.5
20211016031215 50 249 1.0 5.0 0.00 0.02 0.02 66 1007.5
20211016031115 50 249 1.0 4.0 0.00 0.02 0.02 66 1007.5
20211016031015 50 249 2.0 4.0 0.00 0.02 0.02 66 1007.5
20211016030915 50 249 2.0 4.0 0.00 0.02 0.02 66 1007.5
20211016030815 50 248 2.0 4.0 0.00 0.02 0.02 66 1007.5
20211016030715 50 248 2.0 5.0 0.00 0.02 0.02 66 1007.5
20211016030615 50 248 2.0 5.0 0.00 0.02 0.02 66 1007.4
20211016030515 50 248 2.0 5.0 0.00 0.02 0.02 66 1007.4
20211016030414 50 248 2.0 5.0 0.00 0.02 0.02 66 1007.4
20211016030315 50 248 2.0 5.0 0.00 0.02 0.02 66 1007.3
20211016030216 50 249 3.0 5.0 0.00 0.02 0.02 66 1007.3
20211016030115 50 250 3.0 7.0 0.00 0.02 0.02 66 1007.3
20211016030018 50 251 3.0 7.0 0.00 0.02 0.02 65 1007.3
20211016025915 50 252 3.0 7.0 0.00 0.02 0.02 65 1007.2
20211016025815 50 253 3.0 7.0 0.00 0.02 0.02 64 1007.2
20211016025714 50 254 3.0 7.0 0.00 0.02 0.02 64 1007.3
20211016025615 50 255 3.0 7.0 0.00 0.02 0.02 64 1007.3
20211016025515 50 256 3.0 7.0 0.00 0.02 0.02 63 1007.3
20211016025415 50 257 2.0 7.0 0.00 0.02 0.02 63 1007.3
20211016025315 50 258 2.0 7.0 0.00 0.02 0.02 62 1007.3
20211016025214 50 258 2.0 7.0 0.00 0.02 0.02 62 1007.2
20211016025115 50 259 1.0 7.0 0.00 0.02 0.02 62 1007.2
20211016025015 50 259 1.0 4.0 0.00 0.02 0.02 62 1007.2
20211016024915 50 260 1.0 4.0 0.00 0.02 0.02 62 1007.2
20211016024815 50 260 1.0 4.0 0.00 0.02 0.02 61 1007.3
20211016024714 50 260 1.0 4.0 0.00 0.02 0.02 61 1007.2
20211016024615 50 260 0.0 2.0 0.00 0.02 0.02 61 1007.2
20211016024515 50 260 0.0 2.0 0.00 0.02 0.02 61 1007.2
20211016024415 50 260 0.0 2.0 0.00 0.02 0.02 61 1007.2
20211016024315 50 260 0.0 2.0 0.00 0.02 0.02 61 1007.2
20211016024214 50 260 0.0 2.0 0.00 0.02 0.02 61 1007.2
20211016024115 50 260 0.0 2.0 0.00 0.02 0.02 61 1007.3
20211016024015 50 260 0.0 2.0 0.00 0.02 0.02 61 1007.3
20211016023915 50 260 0.0 1.0 0.00 0.02 0.02 61 1007.3
20211016023814 50 260 0.0 2.0 0.00 0.02 0.02 61 1007.3
20211016023715 50 260 0.0 2.0 0.00 0.02 0.02 61 1007.3
20211016023615 50 260 0.0 2.0 0.00 0.02 0.02 61 1007.4
20211016023515 50 261 0.0 3.0 0.00 0.02 0.02 61 1007.4
20211016023415 50 261 0.0 3.0 0.00 0.02 0.02 61 1007.4
20211016023314 50 261 1.0 3.0 0.00 0.02 0.02 61 1007.5
20211016023215 50 261 1.0 4.0 0.00 0.02 0.02 61 1007.5
20211016023115 50 261 1.0 4.0 0.00 0.02 0.02 61 1007.4
20211016023017 50 261 1.0 4.0 0.00 0.02 0.02 61 1007.5
20211016022915 50 261 1.0 4.0 0.00 0.02 0.02 61 1007.5
20211016022815 50 261 1.0 4.0 0.00 0.02 0.02 61 1007.5
20211016022715 50 261 1.0 4.0 0.00 0.02 0.02 60 1007.5
20211016022615 50 261 1.0 4.0 0.00 0.02 0.02 60 1007.5
20211016022515 50 262 1.0 4.0 0.00 0.02 0.02 60 1007.6
20211016022415 50 262 1.0 4.0 0.00 0.02 0.02 60 1007.6
20211016022315 50 262 1.0 4.0 0.00 0.02 0.02 59 1007.6
20211016022215 50 261 0.0 3.0 0.00 0.02 0.02 59 1007.6
20211016022115 50 262 0.0 2.0 0.00 0.02 0.02 59 1007.7
20211016022015 51 261 0.0 2.0 0.00 0.02 0.02 59 1007.7
20211016021915 51 0 0.0 0.0 0.00 0.02 0.02 59 1007.7
20211016021815 51 0 0.0 0.0 0.00 0.02 0.02 59 1007.7
20211016021715 51 0 0.0 0.0 0.00 0.02 0.02 59 1007.7
20211016021614 51 0 0.0 0.0 0.00 0.02 0.02 59 1007.7
20211016021515 51 0 0.0 0.0 0.00 0.02 0.02 59 1007.7
20211016021415 51 0 0.0 0.0 0.00 0.02 0.02 59 1007.7
20211016021315 51 0 0.0 0.0 0.00 0.02 0.02 59 1007.7
20211016021214 51 0 0.0 0.0 0.00 0.02 0.02 60 1007.7
20211016021115 51 0 0.0 0.0 0.00 0.02 0.02 60 1007.7
20211016021015 51 0 0.0 0.0 0.00 0.02 0.02 60 1007.7
20211016020915 51 0 0.0 0.0 0.00 0.02 0.02 60 1007.7
20211016020814 51 0 0.0 0.0 0.00 0.02 0.02 60 1007.7
20211016020714 51 0 0.0 0.0 0.00 0.02 0.02 61 1007.7
20211016020615 51 0 0.0 0.0 0.00 0.02 0.02 61 1007.7
20211016020515 51 0 0.0 0.0 0.00 0.02 0.02 61 1007.8
20211016020414 51 0 0.0 0.0 0.00 0.02 0.02 62 1007.8
20211016020315 51 0 0.0 0.0 0.00 0.02 0.02 62 1007.8
20211016020215 51 0 0.0 0.0 0.00 0.02 0.02 62 1007.8
20211016020115 51 0 0.0 0.0 0.00 0.02 0.02 63 1007.8
20211016020017 50 0 0.0 0.0 0.00 0.02 0.02 63 1007.8
20211016015915 50 0 0.0 0.0 0.00 0.02 0.02 63 1007.8
20211016015815 50 0 0.0 0.0 0.00 0.02 0.02 63 1007.8
20211016015714 50 0 0.0 0.0 0.00 0.02 0.02 64 1007.8
20211016015614 51 0 0.0 0.0 0.00 0.02 0.02 64 1007.8
20211016015515 51 0 0.0 0.0 0.00 0.02 0.02 63 1007.8
20211016015415 51 0 0.0 0.0 0.00 0.02 0.02 64 1007.8
20211016015315 51 0 0.0 0.0 0.00 0.02 0.02 64 1007.7
20211016015215 51 0 0.0 0.0 0.00 0.02 0.02 64 1007.7
20211016015114 51 0 0.0 0.0 0.00 0.02 0.02 64 1007.8
20211016015014 51 0 0.0 0.0 0.00 0.02 0.02 64 1007.8
20211016014915 51 0 0.0 0.0 0.00 0.02 0.02 64 1007.9
20211016014815 51 0 0.0 0.0 0.00 0.02 0.02 64 1007.9
20211016014714 51 0 0.0 0.0 0.00 0.02 0.02 65 1007.9
20211016014614 51 0 0.0 0.0 0.00 0.02 0.02 65 1007.9
20211016014515 51 0 0.0 0.0 0.00 0.02 0.02 65 1007.9
20211016014415 51 0 0.0 0.0 0.00 0.02 0.02 65 1007.9
20211016014315 51 0 0.0 0.0 0.00 0.02 0.02 65 1007.9
20211016014214 51 0 0.0 0.0 0.00 0.02 0.02 66 1008.0
20211016014114 51 0 0.0 0.0 0.00 0.02 0.02 66 1008.0
20211016014015 51 0 0.0 0.0 0.00 0.02 0.02 66 1007.9
20211016013915 51 0 0.0 0.0 0.00 0.02 0.02 66 1008.0
20211016013815 51 0 0.0 0.0 0.00 0.02 0.02 66 1008.0
20211016013714 51 0 0.0 0.0 0.00 0.02 0.02 66 1007.9
20211016013615 51 0 0.0 0.0 0.00 0.02 0.02 66 1007.9
20211016013515 51 0 0.0 0.0 0.00 0.02 0.02 66 1008.0
20211016013415 51 0 0.0 0.0 0.00 0.02 0.02 66 1008.0
20211016013314 51 0 0.0 0.0 0.00 0.02 0.02 66 1007.9
20211016013215 51 0 0.0 0.0 0.00 0.02 0.02 66 1007.9
20211016013115 51 0 0.0 0.0 0.00 0.02 0.02 66 1007.9
20211016013017 51 0 0.0 0.0 0.00 0.02 0.02 66 1007.9
20211016012915 51 0 0.0 0.0 0.00 0.02 0.02 66 1008.0
20211016012814 51 0 0.0 0.0 0.00 0.02 0.02 66 1008.0
20211016012714 51 0 0.0 0.0 0.00 0.02 0.02 66 1008.0
20211016012615 51 0 0.0 0.0 0.00 0.02 0.02 66 1008.0
20211016012515 51 0 0.0 0.0 0.00 0.02 0.02 66 1008.0
20211016012415 51 0 0.0 0.0 0.00 0.02 0.02 66 1008.0
20211016012315 51 0 0.0 0.0 0.00 0.02 0.02 66 1008.1